Time,TemperatureF,DewpointF,PressureIn,WindDirection,WindDirectionDegrees,WindSpeedMPH,WindSpeedGustMPH,Humidity,HourlyPrecipIn,Conditions,Clouds,dailyrainin,SolarRadiationWatts/m^2,SoftwareType,DateUTC
2013-03-20 00:00:00,12.9,4.3,30.20,West,263,1.0,4.0,68,0.00,,,0.00,0,Wunderground v.1.15,2013-03-20 05:00:00,
2013-03-20 00:03:00,12.8,4.2,30.20,NNE,28,1.0,4.0,68,0.00,,,0.00,0,Wunderground v.1.15,2013-03-20 05:03:00,
2013-03-20 00:05:00,12.8,4.5,30.20,NNE,27,1.0,4.0,69,0.00,,,0.00,0,Wunderground v.1.15,2013-03-20 05:05:00,
2013-03-20 00:06:00,12.8,4.5,30.20,North,5,1.0,4.0,69,0.00,,,0.00,0,Wunderground v.1.15,2013-03-20 05:06:00,
2013-03-20 00:08:00,12.8,4.2,30.20,North,5,1.0,4.0,68,0.00,,,0.00,0,Wunderground v.1.15,2013-03-20 05:08:00,
2013-03-20 00:10:00,12.8,4.2,30.20,North,5,1.0,1.0,68,0.00,,,0.00,0,Wunderground v.1.15,2013-03-20 05:10:00,
2013-03-20 00:12:00,12.7,4.1,30.20,SSW,211,1.0,4.0,68,0.00,,,0.00,0,Wunderground v.1.15,2013-03-20 05:12:00,
2013-03-20 00:14:00,12.6,4.0,30.20,WSW,255,1.0,4.0,68,0.00,,,0.00,0,Wunderground v.1.15,2013-03-20 05:14:00,
2013-03-20 00:17:00,12.6,4.3,30.20,NNW,344,1.0,4.0,69,0.00,,,0.00,0,Wunderground v.1.15,2013-03-20 05:17:00,
2013-03-20 00:19:00,12.6,4.3,30.20,SW,233,1.0,4.0,69,0.00,,,0.00,0,Wunderground v.1.15,2013-03-20 05:19:00,
2013-03-20 00:20:00,12.5,3.9,30.20,WSW,239,2.0,4.0,68,0.00,,,0.00,0,Wunderground v.1.15,2013-03-20 05:20:00,
2013-03-20 00:24:00,12.4,3.8,30.20,WSW,239,2.0,4.0,68,0.00,,,0.00,0,Wunderground v.1.15,2013-03-20 05:24:00,
2013-03-20 00:26:00,12.4,4.2,30.20,WSW,239,1.0,4.0,69,0.00,,,0.00,0,Wunderground v.1.15,2013-03-20 05:26:00,
2013-03-20 00:29:00,12.3,4.1,30.20,WSW,239,1.0,4.0,69,0.00,,,0.00,0,Wunderground v.1.15,2013-03-20 05:29:00,
2013-03-20 00:30:00,12.2,3.6,30.20,WSW,239,1.0,3.0,68,0.00,,,0.00,0,Wunderground v.1.15,2013-03-20 05:30:00,
2013-03-20 00:31:00,12.2,3.6,30.21,WSW,239,1.0,3.0,68,0.00,,,0.00,0,Wunderground v.1.15,2013-03-20 05:31:00,
2013-03-20 00:32:00,12.1,3.9,30.20,WSW,239,1.0,3.0,69,0.00,,,0.00,0,Wunderground v.1.15,2013-03-20 05:32:00,
2013-03-20 00:38:00,12.0,3.8,30.20,WSW,239,1.0,3.0,69,0.00,,,0.00,0,Wunderground v.1.15,2013-03-20 05:38:00,
2013-03-20 00:40:00,11.9,3.7,30.20,WSW,239,1.0,1.0,69,0.00,,,0.00,0,Wunderground v.1.15,2013-03-20 05:40:00,
2013-03-20 00:41:00,11.9,3.7,30.20,WSW,239,1.0,1.0,69,0.00,,,0.00,0,Wunderground v.1.15,2013-03-20 05:41:00,
2013-03-20 00:44:00,11.8,3.6,30.20,WSW,253,1.0,11.0,69,0.00,,,0.00,0,Wunderground v.1.15,2013-03-20 05:44:00,
2013-03-20 00:47:00,11.8,3.6,30.20,NNW,340,2.0,11.0,69,0.00,,,0.00,0,Wunderground v.1.15,2013-03-20 05:47:00,
2013-03-20 00:49:00,11.8,3.6,30.20,WSW,258,2.0,11.0,69,0.00,,,0.00,0,Wunderground v.1.15,2013-03-20 05:49:00,
2013-03-20 00:52:00,11.8,3.6,30.20,North,11,2.0,2.0,69,0.00,,,0.00,0,Wunderground v.1.15,2013-03-20 05:52:00,
2013-03-20 00:53:00,11.8,3.6,30.20,SW,236,2.0,5.0,69,0.00,,,0.00,0,Wunderground v.1.15,2013-03-20 05:53:00,
2013-03-20 00:54:00,11.8,3.6,30.20,SW,236,2.0,5.0,69,0.00,,,0.00,0,Wunderground v.1.15,2013-03-20 05:54:00,
2013-03-20 00:58:00,11.8,3.6,30.20,SW,236,1.0,5.0,69,0.00,,,0.00,0,Wunderground v.1.15,2013-03-20 05:58:00,
2013-03-20 01:00:00,11.8,3.6,30.20,SW,236,1.0,2.0,69,0.00,,,0.00,0,Wunderground v.1.15,2013-03-20 06:00:00,
2013-03-20 01:01:00,11.8,3.6,30.20,SW,227,1.0,2.0,69,0.00,,,0.00,0,Wunderground v.1.15,2013-03-20 06:01:00,
2013-03-20 01:04:00,11.8,3.6,30.21,West,281,1.0,5.0,69,0.00,,,0.00,0,Wunderground v.1.15,2013-03-20 06:04:00,
2013-03-20 01:06:00,11.8,3.3,30.21,WNW,290,1.0,5.0,68,0.00,,,0.00,0,Wunderground v.1.15,2013-03-20 06:06:00,
2013-03-20 01:07:00,11.9,3.4,30.20,WNW,290,1.0,5.0,68,0.00,,,0.00,0,Wunderground v.1.15,2013-03-20 06:07:00,
2013-03-20 01:09:00,11.9,3.4,30.21,WSW,248,1.0,5.0,68,0.00,,,0.00,0,Wunderground v.1.15,2013-03-20 06:09:00,
2013-03-20 01:12:00,11.8,3.3,30.21,WSW,248,1.0,1.0,68,0.00,,,0.00,0,Wunderground v.1.15,2013-03-20 06:12:00,
2013-03-20 01:15:00,11.8,3.3,30.20,WSW,242,2.0,5.0,68,0.00,,,0.00,0,Wunderground v.1.15,2013-03-20 06:15:00,
2013-03-20 01:19:00,11.8,3.3,30.20,WSW,238,2.0,5.0,68,0.00,,,0.00,0,Wunderground v.1.15,2013-03-20 06:19:00,
2013-03-20 01:20:00,11.8,3.3,30.20,West,281,2.0,3.0,68,0.00,,,0.00,0,Wunderground v.1.15,2013-03-20 06:20:00,
2013-03-20 01:22:00,11.8,2.9,30.21,West,281,2.0,3.0,67,0.00,,,0.00,0,Wunderground v.1.15,2013-03-20 06:22:00,
2013-03-20 01:26:00,11.6,2.8,30.20,West,276,1.0,3.0,67,0.00,,,0.00,0,Wunderground v.1.15,2013-03-20 06:26:00,
2013-03-20 01:27:00,11.5,2.7,30.20,West,276,1.0,3.0,67,0.00,,,0.00,0,Wunderground v.1.15,2013-03-20 06:27:00,
2013-03-20 01:30:00,11.4,2.9,30.21,SW,222,2.0,5.0,68,0.00,,,0.00,0,Wunderground v.1.15,2013-03-20 06:30:00,
2013-03-20 01:34:00,11.3,2.8,30.21,SW,221,2.0,5.0,68,0.00,,,0.00,0,Wunderground v.1.15,2013-03-20 06:34:00,
2013-03-20 01:35:00,11.2,2.7,30.20,WSW,253,2.0,5.0,68,0.00,,,0.00,0,Wunderground v.1.15,2013-03-20 06:35:00,
2013-03-20 01:37:00,11.2,2.7,30.21,WSW,255,2.0,5.0,68,0.00,,,0.00,0,Wunderground v.1.15,2013-03-20 06:37:00,
2013-03-20 01:38:00,11.2,2.7,30.21,WSW,254,2.0,5.0,68,0.00,,,0.00,0,Wunderground v.1.15,2013-03-20 06:38:00,
2013-03-20 01:40:00,11.1,2.6,30.21,WSW,254,1.0,1.0,68,0.00,,,0.00,0,Wunderground v.1.15,2013-03-20 06:40:00,
2013-03-20 01:43:00,11.0,2.5,30.21,WSW,254,1.0,2.0,68,0.00,,,0.00,0,Wunderground v.1.15,2013-03-20 06:43:00,
2013-03-20 01:44:00,11.0,2.5,30.21,WSW,254,1.0,2.0,68,0.00,,,0.00,0,Wunderground v.1.15,2013-03-20 06:44:00,
2013-03-20 01:47:00,10.9,2.4,30.21,WSW,254,1.0,2.0,68,0.00,,,0.00,0,Wunderground v.1.15,2013-03-20 06:47:00,
2013-03-20 01:49:00,10.8,2.3,30.21,West,261,0.0,2.0,68,0.00,,,0.00,0,Wunderground v.1.15,2013-03-20 06:49:00,
2013-03-20 01:51:00,10.8,2.3,30.21,WSW,258,0.0,1.0,68,0.00,,,0.00,0,Wunderground v.1.15,2013-03-20 06:51:00,
2013-03-20 01:55:00,10.9,2.4,30.21,North,5,1.0,1.0,68,0.00,,,0.00,0,Wunderground v.1.15,2013-03-20 06:55:00,
2013-03-20 01:56:00,10.9,2.4,30.21,WSW,257,1.0,5.0,68,0.00,,,0.00,0,Wunderground v.1.15,2013-03-20 06:56:00,
2013-03-20 01:58:00,10.9,2.4,30.21,SSE,167,2.0,6.0,68,0.00,,,0.00,0,Wunderground v.1.15,2013-03-20 06:58:00,
2013-03-20 02:02:00,10.9,2.4,30.21,WNW,282,2.0,2.0,68,0.00,,,0.00,0,Wunderground v.1.15,2013-03-20 07:02:00,
2013-03-20 02:04:00,10.9,2.4,30.21,WNW,282,2.0,2.0,68,0.00,,,0.00,0,Wunderground v.1.15,2013-03-20 07:04:00,
2013-03-20 02:05:00,10.8,2.3,30.21,WNW,282,2.0,2.0,68,0.00,,,0.00,0,Wunderground v.1.15,2013-03-20 07:05:00,
2013-03-20 02:09:00,10.8,2.3,30.21,West,259,1.0,2.0,68,0.00,,,0.00,0,Wunderground v.1.15,2013-03-20 07:09:00,
2013-03-20 02:11:00,10.8,2.0,30.21,West,259,1.0,1.0,67,0.00,,,0.00,0,Wunderground v.1.15,2013-03-20 07:11:00,
2013-03-20 02:12:00,10.7,1.9,30.21,West,259,1.0,1.0,67,0.00,,,0.00,0,Wunderground v.1.15,2013-03-20 07:12:00,
2013-03-20 02:16:00,10.7,1.9,30.21,WSW,257,1.0,2.0,67,0.00,,,0.00,0,Wunderground v.1.15,2013-03-20 07:16:00,
2013-03-20 02:17:00,10.6,1.8,30.21,WSW,257,1.0,2.0,67,0.00,,,0.00,0,Wunderground v.1.15,2013-03-20 07:17:00,
2013-03-20 02:19:00,10.5,1.7,30.21,WSW,257,1.0,2.0,67,0.00,,,0.00,0,Wunderground v.1.15,2013-03-20 07:19:00,
2013-03-20 02:21:00,10.5,1.7,30.21,WSW,257,1.0,2.0,67,0.00,,,0.00,0,Wunderground v.1.15,2013-03-20 07:21:00,
2013-03-20 02:22:00,10.5,1.7,30.21,WSW,257,1.0,2.0,67,0.00,,,0.00,0,Wunderground v.1.15,2013-03-20 07:22:00,
2013-03-20 02:23:00,10.5,2.0,30.21,WSW,257,0.0,2.0,68,0.00,,,0.00,0,Wunderground v.1.15,2013-03-20 07:23:00,
2013-03-20 02:25:00,10.5,2.0,30.21,WSW,257,0.0,2.0,68,0.00,,,0.00,0,Wunderground v.1.15,2013-03-20 07:25:00,
2013-03-20 02:28:00,10.5,1.7,30.21,WSW,257,0.0,2.0,67,0.00,,,0.00,0,Wunderground v.1.15,2013-03-20 07:28:00,
2013-03-20 02:29:00,10.5,1.7,30.21,WSW,257,0.0,2.0,67,0.00,,,0.00,0,Wunderground v.1.15,2013-03-20 07:29:00,
2013-03-20 02:34:00,10.3,1.5,30.21,WSW,254,1.0,4.0,67,0.00,,,0.00,0,Wunderground v.1.15,2013-03-20 07:34:00,
2013-03-20 02:35:00,10.2,1.7,30.21,WSW,254,1.0,4.0,68,0.00,,,0.00,0,Wunderground v.1.15,2013-03-20 07:35:00,
2013-03-20 02:37:00,10.1,1.6,30.22,West,266,1.0,4.0,68,0.00,,,0.00,0,Wunderground v.1.15,2013-03-20 07:37:00,
2013-03-20 02:39:00,10.1,1.6,30.22,SW,224,1.0,4.0,68,0.00,,,0.00,0,Wunderground v.1.15,2013-03-20 07:39:00,
2013-03-20 02:40:00,10.0,1.5,30.22,WSW,255,1.0,2.0,68,0.00,,,0.00,0,Wunderground v.1.15,2013-03-20 07:40:00,
2013-03-20 02:42:00,10.1,1.6,30.22,WSW,251,2.0,2.0,68,0.00,,,0.00,0,Wunderground v.1.15,2013-03-20 07:42:00,
2013-03-20 02:46:00,10.1,1.6,30.22,WSW,245,2.0,3.0,68,0.00,,,0.00,0,Wunderground v.1.15,2013-03-20 07:46:00,
2013-03-20 02:48:00,10.0,1.5,30.22,WSW,242,2.0,3.0,68,0.00,,,0.00,0,Wunderground v.1.15,2013-03-20 07:48:00,
2013-03-20 02:49:00,10.0,1.5,30.22,WSW,242,2.0,3.0,68,0.00,,,0.00,0,Wunderground v.1.15,2013-03-20 07:49:00,
2013-03-20 02:52:00,9.9,1.4,30.22,SW,223,2.0,2.0,68,0.00,,,0.00,0,Wunderground v.1.15,2013-03-20 07:52:00,
2013-03-20 02:55:00,9.8,1.3,30.22,SW,223,1.0,4.0,68,0.00,,,0.00,0,Wunderground v.1.15,2013-03-20 07:55:00,
2013-03-20 02:56:00,9.8,1.3,30.22,SW,223,1.0,4.0,68,0.00,,,0.00,0,Wunderground v.1.15,2013-03-20 07:56:00,
2013-03-20 02:57:00,9.8,1.3,30.22,SW,223,1.0,4.0,68,0.00,,,0.00,0,Wunderground v.1.15,2013-03-20 07:57:00,
2013-03-20 03:00:00,9.6,1.2,30.22,West,261,1.0,2.0,68,0.00,,,0.00,0,Wunderground v.1.15,2013-03-20 08:00:00,
2013-03-20 03:02:00,9.6,1.2,30.22,West,266,1.0,3.0,68,0.00,,,0.00,0,Wunderground v.1.15,2013-03-20 08:02:00,
2013-03-20 03:03:00,9.6,1.2,30.22,West,266,1.0,3.0,68,0.00,,,0.00,0,Wunderground v.1.15,2013-03-20 08:03:00,
2013-03-20 03:06:00,9.6,1.2,30.22,West,265,1.0,3.0,68,0.00,,,0.00,0,Wunderground v.1.15,2013-03-20 08:06:00,
2013-03-20 03:10:00,9.5,1.1,30.22,SW,226,1.0,1.0,68,0.00,,,0.00,0,Wunderground v.1.15,2013-03-20 08:10:00,
2013-03-20 03:11:00,9.5,1.1,30.22,SW,226,1.0,1.0,68,0.00,,,0.00,0,Wunderground v.1.15,2013-03-20 08:11:00,
2013-03-20 03:12:00,9.5,1.1,30.22,SW,226,1.0,1.0,68,0.00,,,0.00,0,Wunderground v.1.15,2013-03-20 08:12:00,
2013-03-20 03:13:00,9.4,1.0,30.22,SW,226,1.0,2.0,68,0.00,,,0.00,0,Wunderground v.1.15,2013-03-20 08:13:00,
2013-03-20 03:17:00,9.4,1.0,30.22,SW,226,1.0,3.0,68,0.00,,,0.00,0,Wunderground v.1.15,2013-03-20 08:17:00,
2013-03-20 03:18:00,9.3,0.9,30.22,SW,226,1.0,3.0,68,0.00,,,0.00,0,Wunderground v.1.15,2013-03-20 08:18:00,
2013-03-20 03:20:00,9.2,0.8,30.22,SW,226,1.0,3.0,68,0.00,,,0.00,0,Wunderground v.1.15,2013-03-20 08:20:00,
2013-03-20 03:25:00,8.9,0.5,30.22,SW,227,2.0,3.0,68,0.00,,,0.00,0,Wunderground v.1.15,2013-03-20 08:25:00,
2013-03-20 03:26:00,8.9,0.5,30.22,SW,227,2.0,3.0,68,0.00,,,0.00,0,Wunderground v.1.15,2013-03-20 08:26:00,
2013-03-20 03:28:00,8.9,0.5,30.22,West,267,2.0,3.0,68,0.00,,,0.00,0,Wunderground v.1.15,2013-03-20 08:28:00,
2013-03-20 03:29:00,8.9,0.5,30.22,West,267,2.0,3.0,68,0.00,,,0.00,0,Wunderground v.1.15,2013-03-20 08:29:00,
2013-03-20 03:33:00,8.7,0.6,30.22,WSW,240,1.0,4.0,69,0.00,,,0.00,0,Wunderground v.1.15,2013-03-20 08:33:00,
2013-03-20 03:34:00,8.7,0.6,30.22,WSW,240,1.0,4.0,69,0.00,,,0.00,0,Wunderground v.1.15,2013-03-20 08:34:00,
2013-03-20 03:35:00,8.7,0.6,30.22,WSW,240,1.0,4.0,69,0.00,,,0.00,0,Wunderground v.1.15,2013-03-20 08:35:00,
2013-03-20 03:37:00,8.7,0.6,30.22,SW,229,2.0,6.0,69,0.00,,,0.00,0,Wunderground v.1.15,2013-03-20 08:37:00,
2013-03-20 03:38:00,8.7,0.6,30.22,NW,321,2.0,6.0,69,0.00,,,0.00,0,Wunderground v.1.15,2013-03-20 08:38:00,
2013-03-20 03:42:00,8.6,0.5,30.22,WSW,246,2.0,2.0,69,0.00,,,0.00,0,Wunderground v.1.15,2013-03-20 08:42:00,
2013-03-20 03:44:00,8.6,2.9,30.22,WSW,246,2.0,2.0,77,0.00,,,0.00,0,Wunderground v.1.15,2013-03-20 08:44:00,
2013-03-20 03:48:00,8.5,0.4,30.22,WSW,241,1.0,3.0,69,0.00,,,0.00,0,Wunderground v.1.15,2013-03-20 08:48:00,
2013-03-20 03:49:00,8.5,0.4,30.22,WSW,241,1.0,3.0,69,0.00,,,0.00,0,Wunderground v.1.15,2013-03-20 08:49:00,
2013-03-20 03:50:00,8.5,0.4,30.22,WSW,241,1.0,1.0,69,0.00,,,0.00,0,Wunderground v.1.15,2013-03-20 08:50:00,
2013-03-20 03:53:00,8.3,0.2,30.22,WSW,241,2.0,4.0,69,0.00,,,0.00,0,Wunderground v.1.15,2013-03-20 08:53:00,
2013-03-20 03:58:00,8.1,0.0,30.22,WSW,241,1.0,4.0,69,0.00,,,0.00,0,Wunderground v.1.15,2013-03-20 08:58:00,
2013-03-20 03:59:00,8.1,0.0,30.22,WSW,241,1.0,4.0,69,0.00,,,0.00,0,Wunderground v.1.15,2013-03-20 08:59:00,
2013-03-20 04:03:00,8.0,-0.1,30.22,WSW,240,1.0,2.0,69,0.00,,,0.00,0,Wunderground v.1.15,2013-03-20 09:03:00,
2013-03-20 04:04:00,8.0,-0.1,30.22,WSW,240,1.0,2.0,69,0.00,,,0.00,0,Wunderground v.1.15,2013-03-20 09:04:00,
2013-03-20 04:06:00,8.0,-0.1,30.22,WSW,240,1.0,2.0,69,0.00,,,0.00,0,Wunderground v.1.15,2013-03-20 09:06:00,
2013-03-20 04:10:00,7.9,-0.2,30.22,WSW,240,1.0,2.0,69,0.00,,,0.00,0,Wunderground v.1.15,2013-03-20 09:10:00,
2013-03-20 04:13:00,7.9,-0.2,30.22,WSW,240,1.0,2.0,69,0.00,,,0.00,0,Wunderground v.1.15,2013-03-20 09:13:00,
2013-03-20 04:16:00,7.9,-0.2,30.22,WSW,240,0.0,2.0,69,0.00,,,0.00,0,Wunderground v.1.15,2013-03-20 09:16:00,
2013-03-20 04:17:00,7.9,-0.2,30.22,WSW,240,1.0,2.0,69,0.00,,,0.00,0,Wunderground v.1.15,2013-03-20 09:17:00,
2013-03-20 04:19:00,8.0,-0.1,30.22,NNW,331,1.0,2.0,69,0.00,,,0.00,0,Wunderground v.1.15,2013-03-20 09:19:00,
2013-03-20 04:22:00,8.1,-0.3,30.22,WSW,251,1.0,1.0,68,0.00,,,0.00,0,Wunderground v.1.15,2013-03-20 09:22:00,
2013-03-20 04:24:00,8.1,-0.3,30.22,WSW,251,1.0,6.0,68,0.00,,,0.00,0,Wunderground v.1.15,2013-03-20 09:24:00,
2013-03-20 04:26:00,8.1,-0.3,30.22,WSW,251,1.0,6.0,68,0.00,,,0.00,0,Wunderground v.1.15,2013-03-20 09:26:00,
2013-03-20 04:29:00,8.2,-0.2,30.22,West,272,1.0,6.0,68,0.00,,,0.00,0,Wunderground v.1.15,2013-03-20 09:29:00,
2013-03-20 04:33:00,8.3,-0.4,30.22,NW,319,1.0,3.0,67,0.00,,,0.00,0,Wunderground v.1.15,2013-03-20 09:33:00,
2013-03-20 04:35:00,8.3,-0.4,30.22,NW,319,1.0,3.0,67,0.00,,,0.00,0,Wunderground v.1.15,2013-03-20 09:35:00,
2013-03-20 04:36:00,8.3,-0.4,30.22,West,263,1.0,3.0,67,0.00,,,0.00,0,Wunderground v.1.15,2013-03-20 09:36:00,
2013-03-20 04:38:00,8.3,-0.4,30.22,NW,320,2.0,5.0,67,0.00,,,0.00,0,Wunderground v.1.15,2013-03-20 09:38:00,
2013-03-20 04:40:00,8.3,-0.4,30.22,West,277,2.0,2.0,67,0.00,,,0.00,0,Wunderground v.1.15,2013-03-20 09:40:00,
2013-03-20 04:42:00,8.4,-0.6,30.22,North,355,2.0,2.0,66,0.00,,,0.00,0,Wunderground v.1.15,2013-03-20 09:42:00,
2013-03-20 04:43:00,8.3,-0.7,30.22,North,355,2.0,2.0,66,0.00,,,0.00,0,Wunderground v.1.15,2013-03-20 09:43:00,
2013-03-20 04:45:00,8.3,-0.7,30.22,NNW,342,2.0,2.0,66,0.00,,,0.00,0,Wunderground v.1.15,2013-03-20 09:45:00,
2013-03-20 04:48:00,8.2,-0.8,30.22,NW,313,1.0,2.0,66,0.00,,,0.00,0,Wunderground v.1.15,2013-03-20 09:48:00,
2013-03-20 04:50:00,8.1,-0.9,30.22,West,281,1.0,2.0,66,0.00,,,0.00,0,Wunderground v.1.15,2013-03-20 09:50:00,
2013-03-20 04:51:00,8.1,-0.9,30.22,SW,220,1.0,2.0,66,0.00,,,0.00,0,Wunderground v.1.15,2013-03-20 09:51:00,
2013-03-20 04:53:00,8.1,-0.9,30.22,WSW,247,1.0,2.0,66,0.00,,,0.00,0,Wunderground v.1.15,2013-03-20 09:53:00,
2013-03-20 04:56:00,8.1,-0.9,30.22,NNW,331,1.0,3.0,66,0.00,,,0.00,0,Wunderground v.1.15,2013-03-20 09:56:00,
2013-03-20 04:59:00,7.9,-1.1,30.22,NNW,331,1.0,3.0,66,0.00,,,0.00,0,Wunderground v.1.15,2013-03-20 09:59:00,
2013-03-20 05:01:00,7.8,-1.2,30.21,West,266,1.0,4.0,66,0.00,,,0.00,0,Wunderground v.1.15,2013-03-20 10:01:00,
2013-03-20 05:02:00,7.8,-1.2,30.22,West,272,1.0,4.0,66,0.00,,,0.00,0,Wunderground v.1.15,2013-03-20 10:02:00,
2013-03-20 05:04:00,7.7,-1.3,30.22,NW,311,1.0,4.0,66,0.00,,,0.00,0,Wunderground v.1.15,2013-03-20 10:04:00,
2013-03-20 05:06:00,7.7,-1.3,30.21,WSW,250,1.0,4.0,66,0.00,,,0.00,0,Wunderground v.1.15,2013-03-20 10:06:00,
2013-03-20 05:08:00,7.6,-1.4,30.21,West,259,2.0,4.0,66,0.00,,,0.00,0,Wunderground v.1.15,2013-03-20 10:08:00,
2013-03-20 05:09:00,7.7,-1.3,30.21,West,259,2.0,4.0,66,0.00,,,0.00,0,Wunderground v.1.15,2013-03-20 10:09:00,
2013-03-20 05:13:00,7.7,-1.3,30.21,WNW,284,2.0,3.0,66,0.00,,,0.00,0,Wunderground v.1.15,2013-03-20 10:13:00,
2013-03-20 05:16:00,7.6,-1.4,30.21,West,281,2.0,3.0,66,0.00,,,0.00,0,Wunderground v.1.15,2013-03-20 10:16:00,
2013-03-20 05:18:00,7.6,-1.4,30.22,West,267,1.0,3.0,66,0.00,,,0.00,0,Wunderground v.1.15,2013-03-20 10:18:00,
2013-03-20 05:19:00,7.6,-1.4,30.22,West,267,1.0,3.0,66,0.00,,,0.00,0,Wunderground v.1.15,2013-03-20 10:19:00,
2013-03-20 05:21:00,7.6,-1.4,30.22,West,267,1.0,1.0,66,0.00,,,0.00,0,Wunderground v.1.15,2013-03-20 10:21:00,
2013-03-20 05:22:00,7.6,-1.4,30.22,West,267,1.0,3.0,66,0.00,,,0.00,0,Wunderground v.1.15,2013-03-20 10:22:00,
2013-03-20 05:26:00,7.6,-1.4,30.22,NW,316,2.0,5.0,66,0.00,,,0.00,0,Wunderground v.1.15,2013-03-20 10:26:00,
2013-03-20 05:27:00,7.5,-1.5,30.22,NW,315,2.0,5.0,66,0.00,,,0.00,0,Wunderground v.1.15,2013-03-20 10:27:00,
2013-03-20 05:32:00,7.5,-1.8,30.22,NW,312,2.0,3.0,65,0.00,,,0.00,0,Wunderground v.1.15,2013-03-20 10:32:00,
2013-03-20 05:34:00,7.4,-1.9,30.22,NW,313,1.0,3.0,65,0.00,,,0.00,0,Wunderground v.1.15,2013-03-20 10:34:00,
2013-03-20 05:35:00,7.4,-1.9,30.22,NW,313,1.0,3.0,65,0.00,,,0.00,0,Wunderground v.1.15,2013-03-20 10:35:00,
2013-03-20 05:40:00,7.4,-1.9,30.22,NW,319,1.0,1.0,65,0.00,,,0.00,0,Wunderground v.1.15,2013-03-20 10:40:00,
2013-03-20 05:42:00,7.4,-1.9,30.22,NW,319,1.0,4.0,65,0.00,,,0.00,0,Wunderground v.1.15,2013-03-20 10:42:00,
2013-03-20 05:47:00,7.3,-2.0,30.23,WNW,292,2.0,4.0,65,0.00,,,0.00,0,Wunderground v.1.15,2013-03-20 10:47:00,
2013-03-20 05:48:00,7.3,-2.0,30.22,West,267,2.0,4.0,65,0.00,,,0.00,0,Wunderground v.1.15,2013-03-20 10:48:00,
2013-03-20 05:50:00,7.3,-2.0,30.22,West,281,2.0,2.0,65,0.00,,,0.00,0,Wunderground v.1.15,2013-03-20 10:50:00,
2013-03-20 05:53:00,7.3,-2.0,30.23,West,265,2.0,2.0,65,0.00,,,0.00,0,Wunderground v.1.15,2013-03-20 10:53:00,
2013-03-20 05:54:00,7.3,-2.0,30.23,West,265,2.0,2.0,65,0.00,,,0.00,0,Wunderground v.1.15,2013-03-20 10:54:00,
2013-03-20 05:56:00,7.3,-2.0,30.23,West,265,2.0,2.0,65,0.00,,,0.00,0,Wunderground v.1.15,2013-03-20 10:56:00,
2013-03-20 05:58:00,7.3,-2.0,30.23,West,265,1.0,2.0,65,0.00,,,0.00,0,Wunderground v.1.15,2013-03-20 10:58:00,
2013-03-20 05:59:00,7.3,-2.0,30.23,West,265,1.0,4.0,65,0.00,,,0.00,0,Wunderground v.1.15,2013-03-20 10:59:00,
2013-03-20 06:00:00,7.2,-2.1,30.23,West,265,1.0,1.0,65,0.00,,,0.00,0,Wunderground v.1.15,2013-03-20 11:00:00,
2013-03-20 06:01:00,7.2,-2.1,30.23,North,360,1.0,3.0,65,0.00,,,0.00,0,Wunderground v.1.15,2013-03-20 11:01:00,
2013-03-20 06:05:00,7.2,-2.1,30.23,NW,316,2.0,5.0,65,0.00,,,0.00,0,Wunderground v.1.15,2013-03-20 11:05:00,
2013-03-20 06:06:00,7.2,-2.1,30.23,NW,316,2.0,5.0,65,0.00,,,0.00,0,Wunderground v.1.15,2013-03-20 11:06:00,
2013-03-20 06:11:00,7.2,-2.1,30.23,WSW,241,2.0,3.0,65,0.00,,,0.00,0,Wunderground v.1.15,2013-03-20 11:11:00,
2013-03-20 06:13:00,7.1,-2.2,30.23,North,355,2.0,3.0,65,0.00,,,0.00,0,Wunderground v.1.15,2013-03-20 11:13:00,
2013-03-20 06:15:00,7.1,-2.2,30.23,WSW,249,1.0,4.0,65,0.00,,,0.00,0,Wunderground v.1.15,2013-03-20 11:15:00,
2013-03-20 06:16:00,7.1,-2.2,30.23,WNW,286,2.0,8.0,65,0.00,,,0.00,0,Wunderground v.1.15,2013-03-20 11:16:00,
2013-03-20 06:18:00,7.1,-2.2,30.23,WSW,244,2.0,8.0,65,0.00,,,0.00,0,Wunderground v.1.15,2013-03-20 11:18:00,
2013-03-20 06:21:00,7.1,-2.2,30.23,West,279,2.0,2.0,65,0.00,,,0.00,0,Wunderground v.1.15,2013-03-20 11:21:00,
2013-03-20 06:22:00,7.1,-2.2,30.23,West,279,2.0,2.0,65,0.00,,,0.00,0,Wunderground v.1.15,2013-03-20 11:22:00,
2013-03-20 06:24:00,7.1,-2.2,30.23,WNW,302,2.0,2.0,65,0.00,,,0.00,0,Wunderground v.1.15,2013-03-20 11:24:00,
2013-03-20 06:26:00,7.0,-2.0,30.23,WNW,302,2.0,2.0,66,0.00,,,0.00,0,Wunderground v.1.15,2013-03-20 11:26:00,
2013-03-20 06:27:00,7.0,-2.0,30.23,WNW,302,1.0,2.0,66,0.00,,,0.00,0,Wunderground v.1.15,2013-03-20 11:27:00,
2013-03-20 06:29:00,7.0,-2.0,30.23,NW,316,1.0,3.0,66,0.00,,,0.00,0,Wunderground v.1.15,2013-03-20 11:29:00,
2013-03-20 06:30:00,7.0,-2.0,30.23,WNW,291,1.0,4.0,66,0.00,,,0.00,0,Wunderground v.1.15,2013-03-20 11:30:00,
2013-03-20 06:35:00,7.0,-2.0,30.23,WNW,299,2.0,5.0,66,0.00,,,0.00,0,Wunderground v.1.15,2013-03-20 11:35:00,
2013-03-20 06:36:00,6.9,-2.1,30.23,WNW,298,2.0,5.0,66,0.00,,,0.00,0,Wunderground v.1.15,2013-03-20 11:36:00,
2013-03-20 06:37:00,7.0,-2.0,30.23,WNW,287,2.0,5.0,66,0.00,,,0.00,0,Wunderground v.1.15,2013-03-20 11:37:00,
2013-03-20 06:41:00,6.9,-2.1,30.23,WNW,300,3.0,10.0,66,0.00,,,0.00,0,Wunderground v.1.15,2013-03-20 11:41:00,
2013-03-20 06:44:00,6.9,-2.1,30.24,WNW,296,3.0,10.0,66,0.00,,,0.00,0,Wunderground v.1.15,2013-03-20 11:44:00,
2013-03-20 06:45:00,6.9,-2.1,30.23,NW,316,3.0,10.0,66,0.00,,,0.00,0,Wunderground v.1.15,2013-03-20 11:45:00,
2013-03-20 06:48:00,6.9,-2.1,30.24,West,272,3.0,10.0,66,0.00,,,0.00,0,Wunderground v.1.15,2013-03-20 11:48:00,
2013-03-20 06:49:00,6.9,-2.1,30.24,West,261,3.0,10.0,66,0.00,,,0.00,0,Wunderground v.1.15,2013-03-20 11:49:00,
2013-03-20 06:50:00,6.9,-2.1,30.24,NW,321,3.0,3.0,66,0.00,,,0.00,0,Wunderground v.1.15,2013-03-20 11:50:00,
2013-03-20 06:53:00,6.9,-1.8,30.24,NW,310,2.0,3.0,67,0.00,,,0.00,0,Wunderground v.1.15,2013-03-20 11:53:00,
2013-03-20 06:54:00,6.9,-2.1,30.24,WNW,301,2.0,4.0,66,0.00,,,0.00,0,Wunderground v.1.15,2013-03-20 11:54:00,
2013-03-20 06:59:00,6.9,-2.1,30.24,West,281,2.0,5.0,66,0.00,,,0.00,0,Wunderground v.1.15,2013-03-20 11:59:00,
2013-03-20 07:00:00,6.9,-2.1,30.24,West,281,2.0,2.0,66,0.00,,,0.00,0,Wunderground v.1.15,2013-03-20 12:00:00,
2013-03-20 07:01:00,6.8,-1.8,30.24,West,271,2.0,12.0,67,0.00,,,0.00,0,Wunderground v.1.15,2013-03-20 12:01:00,
2013-03-20 07:06:00,6.9,-1.8,30.24,WNW,295,4.0,12.0,67,0.00,,,0.00,5,Wunderground v.1.15,2013-03-20 12:06:00,
2013-03-20 07:07:00,6.9,-1.8,30.24,WNW,295,4.0,12.0,67,0.00,,,0.00,5,Wunderground v.1.15,2013-03-20 12:07:00,
2013-03-20 07:08:00,6.8,-1.8,30.24,WSW,243,3.0,12.0,67,0.00,,,0.00,7,Wunderground v.1.15,2013-03-20 12:08:00,
2013-03-20 07:13:00,6.8,-1.8,30.24,NNW,329,3.0,8.0,67,0.00,,,0.00,11,Wunderground v.1.15,2013-03-20 12:13:00,
2013-03-20 07:14:00,6.8,-1.8,30.24,West,276,3.0,8.0,67,0.00,,,0.00,11,Wunderground v.1.15,2013-03-20 12:14:00,
2013-03-20 07:17:00,6.8,-1.8,30.24,West,267,3.0,10.0,67,0.00,,,0.00,12,Wunderground v.1.15,2013-03-20 12:17:00,
2013-03-20 07:19:00,6.8,-1.8,30.23,WSW,245,4.0,10.0,67,0.00,,,0.00,12,Wunderground v.1.15,2013-03-20 12:19:00,
2013-03-20 07:20:00,6.8,-1.8,30.24,NNW,327,4.0,4.0,67,0.00,,,0.00,14,Wunderground v.1.15,2013-03-20 12:20:00,
2013-03-20 07:24:00,6.8,-1.8,30.24,West,277,4.0,7.0,67,0.00,,,0.00,16,Wunderground v.1.15,2013-03-20 12:24:00,
2013-03-20 07:25:00,6.8,-1.8,30.24,West,277,4.0,7.0,67,0.00,,,0.00,16,Wunderground v.1.15,2013-03-20 12:25:00,
2013-03-20 07:30:00,6.9,-1.8,30.24,WNW,293,3.0,3.0,67,0.00,,,0.00,28,Wunderground v.1.15,2013-03-20 12:30:00,
2013-03-20 07:32:00,7.0,-1.7,30.24,WNW,296,3.0,4.0,67,0.00,,,0.00,30,Wunderground v.1.15,2013-03-20 12:32:00,
2013-03-20 07:34:00,7.0,-1.7,30.24,WNW,289,3.0,4.0,67,0.00,,,0.00,35,Wunderground v.1.15,2013-03-20 12:34:00,
2013-03-20 07:35:00,7.1,-1.6,30.24,NW,326,3.0,4.0,67,0.00,,,0.00,37,Wunderground v.1.15,2013-03-20 12:35:00,
2013-03-20 07:38:00,7.2,-1.5,30.24,WSW,241,3.0,5.0,67,0.00,,,0.00,46,Wunderground v.1.15,2013-03-20 12:38:00,
2013-03-20 07:40:00,7.2,-1.5,30.24,WSW,241,3.0,4.0,67,0.00,,,0.00,49,Wunderground v.1.15,2013-03-20 12:40:00,
2013-03-20 07:41:00,7.2,-1.5,30.24,NW,306,3.0,5.0,67,0.00,,,0.00,53,Wunderground v.1.15,2013-03-20 12:41:00,
2013-03-20 07:42:00,7.3,-1.4,30.24,NNW,340,3.0,5.0,67,0.00,,,0.00,54,Wunderground v.1.15,2013-03-20 12:42:00,
2013-03-20 07:45:00,7.4,-1.3,30.24,SW,234,3.0,5.0,67,0.00,,,0.00,63,Wunderground v.1.15,2013-03-20 12:45:00,
2013-03-20 07:47:00,7.5,-1.2,30.24,NW,307,3.0,5.0,67,0.00,,,0.00,69,Wunderground v.1.15,2013-03-20 12:47:00,
2013-03-20 07:50:00,7.5,-1.2,30.24,NW,312,3.0,3.0,67,0.00,,,0.00,77,Wunderground v.1.15,2013-03-20 12:50:00,
2013-03-20 07:51:00,7.6,-1.1,30.24,NW,312,3.0,3.0,67,0.00,,,0.00,83,Wunderground v.1.15,2013-03-20 12:51:00,
2013-03-20 07:52:00,7.7,-1.0,30.24,WSW,252,3.0,8.0,67,0.00,,,0.00,84,Wunderground v.1.15,2013-03-20 12:52:00,
2013-03-20 07:55:00,7.8,-0.9,30.24,West,265,3.0,8.0,67,0.00,,,0.00,95,Wunderground v.1.15,2013-03-20 12:55:00,
2013-03-20 07:57:00,7.8,-0.9,30.24,WNW,284,2.0,8.0,67,0.00,,,0.00,102,Wunderground v.1.15,2013-03-20 12:57:00,
2013-03-20 08:00:00,7.9,-0.8,30.24,WSW,251,2.0,2.0,67,0.00,,,0.00,113,Wunderground v.1.15,2013-03-20 13:00:00,
2013-03-20 08:01:00,8.0,-0.7,30.24,NW,324,3.0,3.0,67,0.00,,,0.00,114,Wunderground v.1.15,2013-03-20 13:01:00,
2013-03-20 08:02:00,8.0,-0.7,30.24,NW,324,3.0,3.0,67,0.00,,,0.00,120,Wunderground v.1.15,2013-03-20 13:02:00,
2013-03-20 08:07:00,8.1,-0.9,30.24,NW,306,3.0,5.0,66,0.00,,,0.00,139,Wunderground v.1.15,2013-03-20 13:07:00,
2013-03-20 08:12:00,8.3,-0.7,30.24,NW,320,3.0,7.0,66,0.00,,,0.00,155,Wunderground v.1.15,2013-03-20 13:12:00,
2013-03-20 08:13:00,8.3,-0.7,30.24,South,186,3.0,7.0,66,0.00,,,0.00,162,Wunderground v.1.15,2013-03-20 13:13:00,
2013-03-20 08:15:00,8.3,-0.7,30.24,WSW,238,3.0,7.0,66,0.00,,,0.00,167,Wunderground v.1.15,2013-03-20 13:15:00,
2013-03-20 08:18:00,8.3,-0.7,30.24,NW,313,3.0,7.0,66,0.00,,,0.00,181,Wunderground v.1.15,2013-03-20 13:18:00,
2013-03-20 08:21:00,8.3,-0.7,30.24,NW,312,4.0,7.0,66,0.00,,,0.00,190,Wunderground v.1.15,2013-03-20 13:21:00,
2013-03-20 08:23:00,8.3,-0.7,30.24,SW,235,3.0,7.0,66,0.00,,,0.00,200,Wunderground v.1.15,2013-03-20 13:23:00,
2013-03-20 08:26:00,8.5,-0.2,30.24,SW,223,4.0,7.0,67,0.00,,,0.00,211,Wunderground v.1.15,2013-03-20 13:26:00,
2013-03-20 08:29:00,8.6,-0.4,30.23,SW,229,4.0,7.0,66,0.00,,,0.00,206,Wunderground v.1.15,2013-03-20 13:29:00,
2013-03-20 08:31:00,8.6,-0.4,30.23,NW,321,4.0,4.0,66,0.00,,,0.00,230,Wunderground v.1.15,2013-03-20 13:31:00,
2013-03-20 08:32:00,8.7,-0.3,30.24,SW,234,3.0,4.0,66,0.00,,,0.00,232,Wunderground v.1.15,2013-03-20 13:32:00,
2013-03-20 08:35:00,8.9,-0.2,30.24,SW,234,3.0,4.0,66,0.00,,,0.00,244,Wunderground v.1.15,2013-03-20 13:35:00,
2013-03-20 08:38:00,9.1,0.0,30.24,WSW,244,3.0,5.0,66,0.00,,,0.00,255,Wunderground v.1.15,2013-03-20 13:38:00,
2013-03-20 08:39:00,9.1,0.0,30.24,WSW,258,3.0,5.0,66,0.00,,,0.00,257,Wunderground v.1.15,2013-03-20 13:39:00,
2013-03-20 08:40:00,9.0,-0.4,30.24,NW,304,2.0,10.0,65,0.00,,,0.00,260,Wunderground v.1.15,2013-03-20 13:40:00,
2013-03-20 08:43:00,9.0,-0.1,30.24,South,175,3.0,10.0,66,0.00,,,0.00,272,Wunderground v.1.15,2013-03-20 13:43:00,
2013-03-20 08:44:00,9.0,-0.1,30.24,WSW,257,3.0,10.0,66,0.00,,,0.00,274,Wunderground v.1.15,2013-03-20 13:44:00,
2013-03-20 08:46:00,9.2,0.5,30.24,WNW,300,3.0,10.0,67,0.00,,,0.00,279,Wunderground v.1.15,2013-03-20 13:46:00,
2013-03-20 08:48:00,9.3,0.2,30.23,NW,313,3.0,10.0,66,0.00,,,0.00,288,Wunderground v.1.15,2013-03-20 13:48:00,
2013-03-20 08:49:00,9.3,0.2,30.23,NW,313,4.0,10.0,66,0.00,,,0.00,292,Wunderground v.1.15,2013-03-20 13:49:00,
2013-03-20 08:52:00,9.2,-0.2,30.23,NW,314,4.0,10.0,65,0.00,,,0.00,308,Wunderground v.1.15,2013-03-20 13:52:00,
2013-03-20 08:57:00,9.2,-0.2,30.23,WNW,295,5.0,10.0,65,0.00,,,0.00,318,Wunderground v.1.15,2013-03-20 13:57:00,
2013-03-20 09:01:00,9.8,0.7,30.23,SSW,211,4.0,10.0,66,0.00,,,0.00,330,Wunderground v.1.15,2013-03-20 14:01:00,
2013-03-20 09:02:00,9.7,0.6,30.23,SSW,205,4.0,10.0,66,0.00,,,0.00,336,Wunderground v.1.15,2013-03-20 14:02:00,
2013-03-20 09:04:00,9.8,0.4,30.24,WNW,290,3.0,10.0,65,0.00,,,0.00,339,Wunderground v.1.15,2013-03-20 14:04:00,
2013-03-20 09:08:00,9.9,0.5,30.23,WSW,257,3.0,10.0,65,0.00,,,0.00,355,Wunderground v.1.15,2013-03-20 14:08:00,
2013-03-20 09:09:00,9.9,0.5,30.23,WSW,246,3.0,10.0,65,0.00,,,0.00,357,Wunderground v.1.15,2013-03-20 14:09:00,
2013-03-20 09:10:00,9.8,0.0,30.23,NW,304,3.0,3.0,64,0.00,,,0.00,366,Wunderground v.1.15,2013-03-20 14:10:00,
2013-03-20 09:11:00,9.9,0.1,30.23,WNW,293,3.0,11.0,64,0.00,,,0.00,362,Wunderground v.1.15,2013-03-20 14:11:00,
2013-03-20 09:13:00,9.9,0.5,30.23,WSW,241,4.0,11.0,65,0.00,,,0.00,369,Wunderground v.1.15,2013-03-20 14:13:00,
2013-03-20 09:15:00,9.9,0.5,30.23,North,355,5.0,11.0,65,0.00,,,0.00,376,Wunderground v.1.15,2013-03-20 14:15:00,
2013-03-20 09:17:00,9.9,0.5,30.23,NNW,348,6.0,11.0,65,0.00,,,0.00,381,Wunderground v.1.15,2013-03-20 14:17:00,
2013-03-20 09:19:00,10.0,0.6,30.23,NNW,338,5.0,11.0,65,0.00,,,0.00,388,Wunderground v.1.15,2013-03-20 14:19:00,
2013-03-20 09:20:00,10.0,0.2,30.23,WNW,299,6.0,10.0,64,0.00,,,0.00,390,Wunderground v.1.15,2013-03-20 14:20:00,
2013-03-20 09:22:00,10.0,0.2,30.23,NW,326,6.0,10.0,64,0.00,,,0.00,399,Wunderground v.1.15,2013-03-20 14:22:00,
2013-03-20 09:25:00,10.1,0.3,30.23,SSW,207,6.0,10.0,64,0.00,,,0.00,406,Wunderground v.1.15,2013-03-20 14:25:00,
2013-03-20 09:28:00,10.4,0.6,30.23,NNW,339,5.0,10.0,64,0.00,,,0.00,417,Wunderground v.1.15,2013-03-20 14:28:00,
2013-03-20 09:30:00,10.5,1.0,30.23,West,259,4.0,4.0,65,0.00,,,0.00,422,Wunderground v.1.15,2013-03-20 14:30:00,
2013-03-20 09:32:00,10.6,0.8,30.23,NNW,329,5.0,6.0,64,0.00,,,0.00,425,Wunderground v.1.15,2013-03-20 14:32:00,
2013-03-20 09:34:00,10.5,0.7,30.23,WSW,249,5.0,6.0,64,0.00,,,0.00,434,Wunderground v.1.15,2013-03-20 14:34:00,
2013-03-20 09:37:00,10.6,0.8,30.23,WSW,257,5.0,8.0,64,0.00,,,0.00,445,Wunderground v.1.15,2013-03-20 14:37:00,
2013-03-20 09:38:00,10.6,0.8,30.23,SW,230,5.0,8.0,64,0.00,,,0.00,448,Wunderground v.1.15,2013-03-20 14:38:00,
2013-03-20 09:39:00,10.7,0.9,30.23,WNW,292,5.0,8.0,64,0.00,,,0.00,448,Wunderground v.1.15,2013-03-20 14:39:00,
2013-03-20 09:40:00,10.8,1.3,30.23,West,268,5.0,10.0,65,0.00,,,0.00,455,Wunderground v.1.15,2013-03-20 14:40:00,
2013-03-20 09:44:00,11.3,1.5,30.23,SW,221,4.0,10.0,64,0.00,,,0.00,466,Wunderground v.1.15,2013-03-20 14:44:00,
2013-03-20 09:45:00,11.3,1.5,30.23,WSW,244,4.0,10.0,64,0.00,,,0.00,468,Wunderground v.1.15,2013-03-20 14:45:00,
2013-03-20 09:46:00,11.1,1.3,30.23,WSW,254,4.0,10.0,64,0.00,,,0.00,469,Wunderground v.1.15,2013-03-20 14:46:00,
2013-03-20 09:48:00,11.0,1.2,30.23,SW,235,4.0,10.0,64,0.00,,,0.00,478,Wunderground v.1.15,2013-03-20 14:48:00,
2013-03-20 09:50:00,10.9,1.1,30.23,NNW,333,4.0,4.0,64,0.00,,,0.00,483,Wunderground v.1.15,2013-03-20 14:50:00,
2013-03-20 09:51:00,11.1,1.6,30.23,West,280,4.0,5.0,65,0.00,,,0.00,485,Wunderground v.1.15,2013-03-20 14:51:00,
2013-03-20 09:52:00,11.2,1.7,30.23,SW,235,4.0,5.0,65,0.00,,,0.00,490,Wunderground v.1.15,2013-03-20 14:52:00,
2013-03-20 09:55:00,11.4,1.6,30.23,North,351,4.0,6.0,64,0.00,,,0.00,496,Wunderground v.1.15,2013-03-20 14:55:00,
2013-03-20 09:57:00,11.4,1.2,30.23,WNW,292,5.0,7.0,63,0.00,,,0.00,503,Wunderground v.1.15,2013-03-20 14:57:00,
2013-03-20 09:58:00,11.3,1.1,30.23,SW,221,4.0,7.0,63,0.00,,,0.00,504,Wunderground v.1.15,2013-03-20 14:58:00,
2013-03-20 10:00:00,11.2,1.4,30.22,NNW,340,5.0,5.0,64,0.00,,,0.00,510,Wunderground v.1.15,2013-03-20 15:00:00,
2013-03-20 10:01:00,11.1,1.3,30.23,SSW,211,5.0,6.0,64,0.00,,,0.00,513,Wunderground v.1.15,2013-03-20 15:01:00,
2013-03-20 10:05:00,11.1,1.6,30.23,SW,217,6.0,10.0,65,0.00,,,0.00,524,Wunderground v.1.15,2013-03-20 15:05:00,
2013-03-20 10:06:00,11.2,1.7,30.23,West,265,7.0,10.0,65,0.00,,,0.00,529,Wunderground v.1.15,2013-03-20 15:06:00,
2013-03-20 10:08:00,11.4,1.9,30.23,NNW,333,6.0,11.0,65,0.00,,,0.00,534,Wunderground v.1.15,2013-03-20 15:08:00,
2013-03-20 10:10:00,11.6,1.8,30.23,WSW,250,6.0,11.0,64,0.00,,,0.00,540,Wunderground v.1.15,2013-03-20 15:10:00,
2013-03-20 10:12:00,11.5,1.7,30.23,WSW,249,6.0,11.0,64,0.00,,,0.00,548,Wunderground v.1.15,2013-03-20 15:12:00,
2013-03-20 10:13:00,11.6,1.8,30.22,South,185,6.0,11.0,64,0.00,,,0.00,545,Wunderground v.1.15,2013-03-20 15:13:00,
2013-03-20 10:15:00,11.7,1.9,30.23,South,171,6.0,11.0,64,0.00,,,0.00,552,Wunderground v.1.15,2013-03-20 15:15:00,
2013-03-20 10:18:00,11.9,2.4,30.23,NNE,17,6.0,11.0,65,0.00,,,0.00,566,Wunderground v.1.15,2013-03-20 15:18:00,
2013-03-20 10:20:00,12.2,2.3,30.22,SW,233,6.0,11.0,64,0.00,,,0.00,571,Wunderground v.1.15,2013-03-20 15:20:00,
2013-03-20 10:21:00,12.1,2.2,30.23,West,262,6.0,11.0,64,0.00,,,0.00,566,Wunderground v.1.15,2013-03-20 15:21:00,
2013-03-20 10:22:00,11.9,2.0,30.23,WSW,238,6.0,11.0,64,0.00,,,0.00,564,Wunderground v.1.15,2013-03-20 15:22:00,
2013-03-20 10:26:00,11.8,2.3,30.23,SW,230,6.0,13.0,65,0.00,,,0.00,598,Wunderground v.1.15,2013-03-20 15:26:00,
2013-03-20 10:27:00,11.9,2.4,30.23,NW,317,6.0,13.0,65,0.00,,,0.00,605,Wunderground v.1.15,2013-03-20 15:27:00,
2013-03-20 10:28:00,12.1,2.6,30.22,WNW,285,6.0,13.0,65,0.00,,,0.00,606,Wunderground v.1.15,2013-03-20 15:28:00,
2013-03-20 10:30:00,12.2,2.3,30.22,NNW,331,7.0,7.0,64,0.00,,,0.00,606,Wunderground v.1.15,2013-03-20 15:30:00,
2013-03-20 10:32:00,12.3,2.1,30.22,SSW,193,6.0,9.0,63,0.00,,,0.00,612,Wunderground v.1.15,2013-03-20 15:32:00,
2013-03-20 10:34:00,12.5,2.3,30.22,NW,314,6.0,9.0,63,0.00,,,0.00,589,Wunderground v.1.15,2013-03-20 15:34:00,
2013-03-20 10:37:00,12.6,2.7,30.22,South,173,5.0,9.0,64,0.00,,,0.00,594,Wunderground v.1.15,2013-03-20 15:37:00,
2013-03-20 10:40:00,12.8,2.9,30.22,West,263,5.0,5.0,64,0.00,,,0.00,619,Wunderground v.1.15,2013-03-20 15:40:00,
2013-03-20 10:42:00,12.8,2.9,30.22,West,274,6.0,6.0,64,0.00,,,0.00,626,Wunderground v.1.15,2013-03-20 15:42:00,
2013-03-20 10:43:00,13.1,3.5,30.22,North,5,5.0,6.0,65,0.00,,,0.00,633,Wunderground v.1.15,2013-03-20 15:43:00,
2013-03-20 10:47:00,13.5,3.2,30.22,West,259,4.0,6.0,63,0.00,,,0.00,687,Wunderground v.1.15,2013-03-20 15:47:00,
2013-03-20 10:48:00,13.6,3.3,30.22,WSW,246,4.0,6.0,63,0.00,,,0.00,687,Wunderground v.1.15,2013-03-20 15:48:00,
2013-03-20 10:53:00,13.4,3.1,30.22,West,264,4.0,8.0,63,0.00,,,0.00,673,Wunderground v.1.15,2013-03-20 15:53:00,
2013-03-20 10:54:00,13.4,3.1,30.22,West,261,4.0,8.0,63,0.00,,,0.00,691,Wunderground v.1.15,2013-03-20 15:54:00,
2013-03-20 10:56:00,13.3,2.7,30.22,SW,234,5.0,13.0,62,0.00,,,0.00,691,Wunderground v.1.15,2013-03-20 15:56:00,
2013-03-20 10:59:00,13.0,2.8,30.22,SW,235,7.0,13.0,63,0.00,,,0.00,715,Wunderground v.1.15,2013-03-20 15:59:00,
2013-03-20 11:01:00,12.8,2.6,30.22,WSW,245,7.0,11.0,63,0.00,,,0.00,675,Wunderground v.1.15,2013-03-20 16:01:00,
2013-03-20 11:02:00,13.0,3.1,30.22,NW,313,7.0,11.0,64,0.00,,,0.00,687,Wunderground v.1.15,2013-03-20 16:02:00,
2013-03-20 11:07:00,14.2,3.9,30.22,SW,232,6.0,11.0,63,0.00,,,0.00,680,Wunderground v.1.15,2013-03-20 16:07:00,
2013-03-20 11:08:00,13.9,3.6,30.22,SW,218,6.0,11.0,63,0.00,,,0.00,722,Wunderground v.1.15,2013-03-20 16:08:00,
2013-03-20 11:10:00,13.6,3.3,30.22,SSW,203,6.0,8.0,63,0.00,,,0.00,722,Wunderground v.1.15,2013-03-20 16:10:00,
2013-03-20 11:12:00,13.4,3.5,30.22,SW,236,6.0,8.0,64,0.00,,,0.00,722,Wunderground v.1.15,2013-03-20 16:12:00,
2013-03-20 11:13:00,13.5,3.6,30.22,WSW,258,7.0,8.0,64,0.00,,,0.00,722,Wunderground v.1.15,2013-03-20 16:13:00,
2013-03-20 11:15:00,13.6,3.7,30.22,SW,233,9.0,15.0,64,0.00,,,0.00,737,Wunderground v.1.15,2013-03-20 16:15:00,
2013-03-20 11:16:00,13.5,3.2,30.22,SW,216,9.0,15.0,63,0.00,,,0.00,737,Wunderground v.1.15,2013-03-20 16:16:00,
2013-03-20 11:19:00,13.5,3.6,30.22,SSW,209,8.0,15.0,64,0.00,,,0.00,752,Wunderground v.1.15,2013-03-20 16:19:00,
2013-03-20 11:22:00,13.7,3.4,30.22,SSW,200,8.0,15.0,63,0.00,,,0.00,782,Wunderground v.1.15,2013-03-20 16:22:00,
2013-03-20 11:24:00,13.9,3.6,30.22,SW,236,8.0,15.0,63,0.00,,,0.00,782,Wunderground v.1.15,2013-03-20 16:24:00,
2013-03-20 11:25:00,13.8,3.5,30.22,SW,232,8.0,15.0,63,0.00,,,0.00,782,Wunderground v.1.15,2013-03-20 16:25:00,
2013-03-20 11:29:00,13.8,3.9,30.22,West,261,7.0,15.0,64,0.00,,,0.00,782,Wunderground v.1.15,2013-03-20 16:29:00,
2013-03-20 11:30:00,14.3,4.7,30.22,WSW,254,6.0,6.0,65,0.00,,,0.00,782,Wunderground v.1.15,2013-03-20 16:30:00,
2013-03-20 11:33:00,14.4,4.1,30.22,WSW,241,5.0,6.0,63,0.00,,,0.00,188,Wunderground v.1.15,2013-03-20 16:33:00,
2013-03-20 11:36:00,14.4,3.7,30.21,WSW,248,4.0,7.0,62,0.00,,,0.00,793,Wunderground v.1.15,2013-03-20 16:36:00,
2013-03-20 11:37:00,14.3,3.6,30.21,SSW,204,4.0,9.0,62,0.00,,,0.00,793,Wunderground v.1.15,2013-03-20 16:37:00,
2013-03-20 11:38:00,14.3,4.0,30.21,SW,221,5.0,9.0,63,0.00,,,0.00,821,Wunderground v.1.15,2013-03-20 16:38:00,
2013-03-20 11:40:00,14.1,3.5,30.21,SW,223,5.0,13.0,62,0.00,,,0.00,860,Wunderground v.1.15,2013-03-20 16:40:00,
2013-03-20 11:43:00,14.1,3.8,30.21,WSW,238,7.0,13.0,63,0.00,,,0.00,810,Wunderground v.1.15,2013-03-20 16:43:00,
2013-03-20 11:45:00,14.2,3.9,30.21,West,268,8.0,13.0,63,0.00,,,0.00,835,Wunderground v.1.15,2013-03-20 16:45:00,
2013-03-20 11:47:00,14.4,4.1,30.21,SW,225,8.0,13.0,63,0.00,,,0.00,287,Wunderground v.1.15,2013-03-20 16:47:00,
2013-03-20 11:49:00,14.6,4.3,30.21,SW,236,7.0,13.0,63,0.00,,,0.00,902,Wunderground v.1.15,2013-03-20 16:49:00,
2013-03-20 11:52:00,14.2,3.2,30.21,SW,232,7.0,12.0,61,0.00,,,0.00,884,Wunderground v.1.15,2013-03-20 16:52:00,
2013-03-20 11:53:00,14.2,3.6,30.21,SW,217,7.0,12.0,62,0.00,,,0.00,884,Wunderground v.1.15,2013-03-20 16:53:00,
2013-03-20 11:58:00,15.4,4.3,30.21,NW,323,6.0,12.0,61,0.00,,,0.00,780,Wunderground v.1.15,2013-03-20 16:58:00,
2013-03-20 11:59:00,15.5,4.4,30.21,NNE,24,6.0,12.0,61,0.00,,,0.00,782,Wunderground v.1.15,2013-03-20 16:59:00,
2013-03-20 12:04:00,15.8,4.0,30.21,WSW,252,5.0,10.0,59,0.00,,,0.00,796,Wunderground v.1.15,2013-03-20 17:04:00,
2013-03-20 12:06:00,15.8,3.6,30.21,North,351,6.0,10.0,58,0.00,,,0.00,821,Wunderground v.1.15,2013-03-20 17:06:00,
2013-03-20 12:08:00,15.8,4.7,30.21,NW,315,6.0,10.0,61,0.00,,,0.00,812,Wunderground v.1.15,2013-03-20 17:08:00,
2013-03-20 12:09:00,16.0,4.9,30.21,WNW,286,6.0,10.0,61,0.00,,,0.00,831,Wunderground v.1.15,2013-03-20 17:09:00,
2013-03-20 12:12:00,16.0,4.2,30.21,WSW,249,6.0,8.0,59,0.00,,,0.00,905,Wunderground v.1.15,2013-03-20 17:12:00,
2013-03-20 12:13:00,16.2,4.4,30.21,WSW,254,6.0,8.0,59,0.00,,,0.00,244,Wunderground v.1.15,2013-03-20 17:13:00,
2013-03-20 12:14:00,16.2,4.4,30.21,NE,51,6.0,8.0,59,0.00,,,0.00,244,Wunderground v.1.15,2013-03-20 17:14:00,
2013-03-20 12:17:00,16.4,4.9,30.21,SW,225,4.0,8.0,60,0.00,,,0.00,837,Wunderground v.1.15,2013-03-20 17:17:00,
2013-03-20 12:19:00,16.7,4.8,30.21,SW,228,4.0,8.0,59,0.00,,,0.00,837,Wunderground v.1.15,2013-03-20 17:19:00,
2013-03-20 12:20:00,16.5,4.7,30.21,WSW,241,4.0,4.0,59,0.00,,,0.00,837,Wunderground v.1.15,2013-03-20 17:20:00,
2013-03-20 12:23:00,16.0,3.8,30.21,SW,227,5.0,9.0,58,0.00,,,0.00,898,Wunderground v.1.15,2013-03-20 17:23:00,
2013-03-20 12:24:00,15.9,4.1,30.20,West,275,5.0,9.0,59,0.00,,,0.00,898,Wunderground v.1.15,2013-03-20 17:24:00,
2013-03-20 12:25:00,15.9,4.1,30.20,WSW,244,5.0,11.0,59,0.00,,,0.00,905,Wunderground v.1.15,2013-03-20 17:25:00,
2013-03-20 12:27:00,15.7,4.3,30.20,WSW,246,6.0,11.0,60,0.00,,,0.00,863,Wunderground v.1.15,2013-03-20 17:27:00,
2013-03-20 12:30:00,15.8,4.7,30.20,WSW,246,7.0,7.0,61,0.00,,,0.00,819,Wunderground v.1.15,2013-03-20 17:30:00,
2013-03-20 12:34:00,16.2,4.4,30.20,West,264,7.0,10.0,59,0.00,,,0.00,803,Wunderground v.1.15,2013-03-20 17:34:00,
2013-03-20 12:35:00,16.0,3.8,30.20,WSW,240,6.0,10.0,58,0.00,,,0.00,809,Wunderground v.1.15,2013-03-20 17:35:00,
2013-03-20 12:37:00,15.7,3.5,30.20,SW,214,6.0,10.0,58,0.00,,,0.00,803,Wunderground v.1.15,2013-03-20 17:37:00,
2013-03-20 12:38:00,15.7,3.9,30.20,NW,304,6.0,10.0,59,0.00,,,0.00,800,Wunderground v.1.15,2013-03-20 17:38:00,
2013-03-20 12:39:00,15.7,3.9,30.20,WSW,240,6.0,10.0,59,0.00,,,0.00,795,Wunderground v.1.15,2013-03-20 17:39:00,
2013-03-20 12:42:00,16.0,3.8,30.20,NW,326,6.0,6.0,58,0.00,,,0.00,819,Wunderground v.1.15,2013-03-20 17:42:00,
2013-03-20 12:43:00,16.1,3.9,30.20,NW,305,6.0,12.0,58,0.00,,,0.00,823,Wunderground v.1.15,2013-03-20 17:43:00,
2013-03-20 12:46:00,16.1,3.5,30.20,West,262,7.0,15.0,57,0.00,,,0.00,819,Wunderground v.1.15,2013-03-20 17:46:00,
2013-03-20 12:48:00,16.4,4.6,30.20,NNW,329,6.0,15.0,59,0.00,,,0.00,793,Wunderground v.1.15,2013-03-20 17:48:00,
2013-03-20 12:50:00,16.7,4.8,30.21,North,355,6.0,9.0,59,0.00,,,0.00,830,Wunderground v.1.15,2013-03-20 17:50:00,
2013-03-20 12:51:00,16.7,4.5,30.21,West,259,7.0,9.0,58,0.00,,,0.00,821,Wunderground v.1.15,2013-03-20 17:51:00,
2013-03-20 12:54:00,16.4,3.8,30.21,NW,317,7.0,13.0,57,0.00,,,0.00,824,Wunderground v.1.15,2013-03-20 17:54:00,
2013-03-20 12:59:00,15.8,3.2,30.20,NW,321,9.0,13.0,57,0.00,,,0.00,816,Wunderground v.1.15,2013-03-20 17:59:00,
2013-03-20 13:00:00,15.9,3.3,30.20,NW,307,8.0,8.0,57,0.00,,,0.00,823,Wunderground v.1.15,2013-03-20 18:00:00,
2013-03-20 13:04:00,17.1,5.6,30.20,West,265,7.0,8.0,60,0.00,,,0.00,824,Wunderground v.1.15,2013-03-20 18:04:00,
2013-03-20 13:05:00,17.2,4.9,30.20,WSW,244,6.0,8.0,58,0.00,,,0.00,838,Wunderground v.1.15,2013-03-20 18:05:00,
2013-03-20 13:09:00,17.3,5.4,30.20,NW,311,4.0,8.0,59,0.00,,,0.00,821,Wunderground v.1.15,2013-03-20 18:09:00,
2013-03-20 13:10:00,17.5,5.6,30.20,WSW,246,4.0,4.0,59,0.00,,,0.00,819,Wunderground v.1.15,2013-03-20 18:10:00,
2013-03-20 13:11:00,17.6,5.7,30.20,SW,226,4.0,6.0,59,0.00,,,0.00,821,Wunderground v.1.15,2013-03-20 18:11:00,
2013-03-20 13:15:00,17.7,5.0,30.20,WSW,239,5.0,14.0,57,0.00,,,0.00,830,Wunderground v.1.15,2013-03-20 18:15:00,
2013-03-20 13:17:00,17.3,4.3,30.20,West,259,5.0,14.0,56,0.00,,,0.00,856,Wunderground v.1.15,2013-03-20 18:17:00,
2013-03-20 13:18:00,17.1,4.1,30.20,SW,230,6.0,14.0,56,0.00,,,0.00,888,Wunderground v.1.15,2013-03-20 18:18:00,
2013-03-20 13:21:00,17.5,5.2,30.20,WSW,240,6.0,6.0,58,0.00,,,0.00,844,Wunderground v.1.15,2013-03-20 18:21:00,
2013-03-20 13:23:00,17.5,5.2,30.20,WSW,238,6.0,7.0,58,0.00,,,0.00,838,Wunderground v.1.15,2013-03-20 18:23:00,
2013-03-20 13:24:00,17.5,5.6,30.20,NW,322,6.0,7.0,59,0.00,,,0.00,831,Wunderground v.1.15,2013-03-20 18:24:00,
2013-03-20 13:25:00,17.7,6.2,30.20,NW,323,5.0,7.0,60,0.00,,,0.00,844,Wunderground v.1.15,2013-03-20 18:25:00,
2013-03-20 13:26:00,17.7,5.8,30.20,West,274,5.0,7.0,59,0.00,,,0.00,851,Wunderground v.1.15,2013-03-20 18:26:00,
2013-03-20 13:30:00,17.8,4.7,30.20,NW,304,5.0,9.0,56,0.00,,,0.00,854,Wunderground v.1.15,2013-03-20 18:30:00,
2013-03-20 13:31:00,17.6,4.2,30.20,SW,233,6.0,9.0,55,0.00,,,0.00,851,Wunderground v.1.15,2013-03-20 18:31:00,
2013-03-20 13:32:00,17.7,4.6,30.20,NW,306,5.0,9.0,56,0.00,,,0.00,856,Wunderground v.1.15,2013-03-20 18:32:00,
2013-03-20 13:35:00,17.6,4.2,30.20,WNW,294,6.0,9.0,55,0.00,,,0.00,877,Wunderground v.1.15,2013-03-20 18:35:00,
2013-03-20 13:37:00,17.9,4.8,30.20,WNW,294,6.0,9.0,56,0.00,,,0.00,863,Wunderground v.1.15,2013-03-20 18:37:00,
2013-03-20 13:39:00,18.3,5.6,30.19,West,265,5.0,9.0,57,0.00,,,0.00,895,Wunderground v.1.15,2013-03-20 18:39:00,
2013-03-20 13:40:00,18.7,6.4,30.20,SW,221,5.0,6.0,58,0.00,,,0.00,891,Wunderground v.1.15,2013-03-20 18:40:00,
2013-03-20 13:44:00,18.1,5.4,30.19,SW,225,5.0,12.0,57,0.00,,,0.00,969,Wunderground v.1.15,2013-03-20 18:44:00,
2013-03-20 13:45:00,17.8,4.7,30.19,SW,231,6.0,12.0,56,0.00,,,0.00,359,Wunderground v.1.15,2013-03-20 18:45:00,
2013-03-20 13:46:00,17.5,4.5,30.19,SW,226,6.0,12.0,56,0.00,,,0.00,459,Wunderground v.1.15,2013-03-20 18:46:00,
2013-03-20 13:47:00,17.3,4.3,30.19,SSW,213,7.0,12.0,56,0.00,,,0.00,459,Wunderground v.1.15,2013-03-20 18:47:00,
2013-03-20 13:49:00,17.1,4.5,30.19,SW,234,8.0,12.0,57,0.00,,,0.00,459,Wunderground v.1.15,2013-03-20 18:49:00,
2013-03-20 13:52:00,17.2,4.6,30.19,West,281,8.0,12.0,57,0.00,,,0.00,949,Wunderground v.1.15,2013-03-20 18:52:00,
2013-03-20 13:53:00,17.4,4.7,30.19,WNW,286,7.0,12.0,57,0.00,,,0.00,1018,Wunderground v.1.15,2013-03-20 18:53:00,
2013-03-20 13:56:00,17.4,4.4,30.19,SW,223,7.0,12.0,56,0.00,,,0.00,907,Wunderground v.1.15,2013-03-20 18:56:00,
2013-03-20 13:58:00,17.6,4.9,30.19,WSW,243,6.0,12.0,57,0.00,,,0.00,925,Wunderground v.1.15,2013-03-20 18:58:00,
2013-03-20 14:01:00,17.3,4.7,30.18,WSW,239,7.0,10.0,57,0.00,,,0.00,925,Wunderground v.1.15,2013-03-20 19:01:00,
2013-03-20 14:02:00,17.2,4.6,30.18,SSW,211,7.0,10.0,57,0.00,,,0.00,881,Wunderground v.1.15,2013-03-20 19:02:00,
2013-03-20 14:03:00,17.4,5.1,30.19,West,264,7.0,10.0,58,0.00,,,0.00,898,Wunderground v.1.15,2013-03-20 19:03:00,
2013-03-20 14:05:00,18.2,6.6,30.19,NNW,336,7.0,10.0,60,0.00,,,0.00,898,Wunderground v.1.15,2013-03-20 19:05:00,
2013-03-20 14:08:00,18.2,4.7,30.18,NW,313,7.0,10.0,55,0.00,,,0.00,893,Wunderground v.1.15,2013-03-20 19:08:00,
2013-03-20 14:10:00,18.6,5.5,30.18,NNW,336,6.0,6.0,56,0.00,,,0.00,939,Wunderground v.1.15,2013-03-20 19:10:00,
2013-03-20 14:11:00,18.7,5.6,30.18,North,355,5.0,7.0,56,0.00,,,0.00,960,Wunderground v.1.15,2013-03-20 19:11:00,
2013-03-20 14:16:00,18.0,4.9,30.18,SW,224,6.0,13.0,56,0.00,,,0.00,933,Wunderground v.1.15,2013-03-20 19:16:00,
2013-03-20 14:17:00,18.0,4.9,30.18,SW,228,6.0,13.0,56,0.00,,,0.00,942,Wunderground v.1.15,2013-03-20 19:17:00,
2013-03-20 14:18:00,17.9,4.4,30.18,SW,219,7.0,14.0,55,0.00,,,0.00,930,Wunderground v.1.15,2013-03-20 19:18:00,
2013-03-20 14:22:00,18.1,5.4,30.18,West,271,8.0,10.0,57,0.00,,,0.00,858,Wunderground v.1.15,2013-03-20 19:22:00,
2013-03-20 14:24:00,18.3,5.6,30.18,SSW,209,8.0,10.0,57,0.00,,,0.00,895,Wunderground v.1.15,2013-03-20 19:24:00,
2013-03-20 14:28:00,18.7,6.4,30.18,WSW,251,7.0,10.0,58,0.00,,,0.00,900,Wunderground v.1.15,2013-03-20 19:28:00,
2013-03-20 14:29:00,18.8,6.1,30.18,WSW,240,7.0,10.0,57,0.00,,,0.00,916,Wunderground v.1.15,2013-03-20 19:29:00,
2013-03-20 14:32:00,19.3,5.7,30.18,NNW,329,7.0,11.0,55,0.00,,,0.00,821,Wunderground v.1.15,2013-03-20 19:32:00,
2013-03-20 14:34:00,19.1,5.6,30.18,West,263,7.0,11.0,55,0.00,,,0.00,872,Wunderground v.1.15,2013-03-20 19:34:00,
2013-03-20 14:37:00,18.6,5.1,30.17,SW,217,7.0,11.0,55,0.00,,,0.00,795,Wunderground v.1.15,2013-03-20 19:37:00,
2013-03-20 14:40:00,18.2,4.7,30.17,WSW,240,7.0,7.0,55,0.00,,,0.00,503,Wunderground v.1.15,2013-03-20 19:40:00,
2013-03-20 14:42:00,18.4,5.3,30.17,NNW,344,7.0,10.0,56,0.00,,,0.00,554,Wunderground v.1.15,2013-03-20 19:42:00,
2013-03-20 14:43:00,18.5,5.4,30.17,NNW,336,7.0,10.0,56,0.00,,,0.00,812,Wunderground v.1.15,2013-03-20 19:43:00,
2013-03-20 14:44:00,18.6,5.5,30.17,NW,304,7.0,10.0,56,0.00,,,0.00,812,Wunderground v.1.15,2013-03-20 19:44:00,
2013-03-20 14:45:00,18.7,5.2,30.17,NNW,340,7.0,10.0,55,0.00,,,0.00,824,Wunderground v.1.15,2013-03-20 19:45:00,
2013-03-20 14:49:00,18.9,5.4,30.17,WSW,243,6.0,10.0,55,0.00,,,0.00,933,Wunderground v.1.15,2013-03-20 19:49:00,
2013-03-20 14:53:00,18.5,5.0,30.17,SW,233,7.0,12.0,55,0.00,,,0.00,796,Wunderground v.1.15,2013-03-20 19:53:00,
2013-03-20 14:55:00,18.5,5.4,30.17,SW,231,7.0,13.0,56,0.00,,,0.00,889,Wunderground v.1.15,2013-03-20 19:55:00,
2013-03-20 14:56:00,18.7,6.0,30.18,NNW,333,7.0,13.0,57,0.00,,,0.00,889,Wunderground v.1.15,2013-03-20 19:56:00,
2013-03-20 15:00:00,18.6,4.7,30.17,SW,228,6.0,6.0,54,0.00,,,0.00,622,Wunderground v.1.15,2013-03-20 20:00:00,
2013-03-20 15:01:00,18.6,5.1,30.17,SW,222,6.0,6.0,55,0.00,,,0.00,345,Wunderground v.1.15,2013-03-20 20:01:00,
2013-03-20 15:02:00,18.6,4.7,30.17,WSW,257,6.0,9.0,54,0.00,,,0.00,345,Wunderground v.1.15,2013-03-20 20:02:00,
2013-03-20 15:05:00,18.4,4.9,30.17,SW,236,6.0,9.0,55,0.00,,,0.00,846,Wunderground v.1.15,2013-03-20 20:05:00,
2013-03-20 15:09:00,18.8,5.7,30.17,SW,229,6.0,9.0,56,0.00,,,0.00,427,Wunderground v.1.15,2013-03-20 20:09:00,
2013-03-20 15:10:00,18.9,6.2,30.17,West,265,7.0,8.0,57,0.00,,,0.00,427,Wunderground v.1.15,2013-03-20 20:10:00,
2013-03-20 15:12:00,19.1,6.0,30.17,WSW,250,7.0,8.0,56,0.00,,,0.00,427,Wunderground v.1.15,2013-03-20 20:12:00,
2013-03-20 15:14:00,19.1,6.0,30.17,WSW,238,6.0,8.0,56,0.00,,,0.00,427,Wunderground v.1.15,2013-03-20 20:14:00,
2013-03-20 15:18:00,18.7,5.2,30.17,WSW,244,7.0,16.0,55,0.00,,,0.00,362,Wunderground v.1.15,2013-03-20 20:18:00,
2013-03-20 15:20:00,18.9,5.8,30.17,SW,233,7.0,7.0,56,0.00,,,0.00,809,Wunderground v.1.15,2013-03-20 20:20:00,
2013-03-20 15:22:00,19.3,5.7,30.17,WNW,282,7.0,7.0,55,0.00,,,0.00,770,Wunderground v.1.15,2013-03-20 20:22:00,
2013-03-20 15:23:00,19.5,5.9,30.17,WSW,250,7.0,7.0,55,0.00,,,0.00,759,Wunderground v.1.15,2013-03-20 20:23:00,
2013-03-20 15:25:00,19.7,6.1,30.17,WSW,240,6.0,7.0,55,0.00,,,0.00,777,Wunderground v.1.15,2013-03-20 20:25:00,
2013-03-20 15:29:00,19.0,5.1,30.17,SW,223,6.0,8.0,54,0.00,,,0.00,455,Wunderground v.1.15,2013-03-20 20:29:00,
2013-03-20 15:30:00,19.0,5.1,30.17,WSW,255,6.0,6.0,54,0.00,,,0.00,455,Wunderground v.1.15,2013-03-20 20:30:00,
2013-03-20 15:31:00,19.2,5.7,30.17,WSW,255,6.0,11.0,55,0.00,,,0.00,775,Wunderground v.1.15,2013-03-20 20:31:00,
2013-03-20 15:35:00,19.8,6.6,30.17,North,355,6.0,11.0,56,0.00,,,0.00,700,Wunderground v.1.15,2013-03-20 20:35:00,
2013-03-20 15:36:00,20.2,7.0,30.17,WNW,286,5.0,11.0,56,0.00,,,0.00,680,Wunderground v.1.15,2013-03-20 20:36:00,
2013-03-20 15:37:00,20.5,7.3,30.17,WNW,291,6.0,11.0,56,0.00,,,0.00,677,Wunderground v.1.15,2013-03-20 20:37:00,
2013-03-20 15:41:00,19.8,5.0,30.17,NW,306,6.0,9.0,52,0.00,,,0.00,253,Wunderground v.1.15,2013-03-20 20:41:00,
2013-03-20 15:42:00,19.6,5.2,30.17,West,276,6.0,9.0,53,0.00,,,0.00,673,Wunderground v.1.15,2013-03-20 20:42:00,
2013-03-20 15:47:00,19.3,5.3,30.17,WSW,248,6.0,14.0,54,0.00,,,0.00,279,Wunderground v.1.15,2013-03-20 20:47:00,
2013-03-20 15:48:00,19.3,5.7,30.17,WNW,296,6.0,14.0,55,0.00,,,0.00,264,Wunderground v.1.15,2013-03-20 20:48:00,
2013-03-20 15:49:00,19.4,5.8,30.17,NW,316,6.0,14.0,55,0.00,,,0.00,264,Wunderground v.1.15,2013-03-20 20:49:00,
2013-03-20 15:53:00,19.6,6.0,30.17,West,262,4.0,6.0,55,0.00,,,0.00,737,Wunderground v.1.15,2013-03-20 20:53:00,
2013-03-20 15:54:00,19.6,6.0,30.17,SW,229,5.0,6.0,55,0.00,,,0.00,737,Wunderground v.1.15,2013-03-20 20:54:00,
2013-03-20 15:55:00,19.7,6.1,30.17,West,279,5.0,6.0,55,0.00,,,0.00,763,Wunderground v.1.15,2013-03-20 20:55:00,
2013-03-20 15:57:00,19.8,6.2,30.17,NW,308,5.0,6.0,55,0.00,,,0.00,271,Wunderground v.1.15,2013-03-20 20:57:00,
2013-03-20 16:00:00,20.5,6.9,30.17,NW,308,4.0,4.0,55,0.00,,,0.00,735,Wunderground v.1.15,2013-03-20 21:00:00,
2013-03-20 16:03:00,20.4,7.2,30.17,NNW,327,5.0,10.0,56,0.00,,,0.00,512,Wunderground v.1.15,2013-03-20 21:03:00,
2013-03-20 16:04:00,20.5,7.3,30.17,West,275,4.0,10.0,56,0.00,,,0.00,373,Wunderground v.1.15,2013-03-20 21:04:00,
2013-03-20 16:08:00,20.0,6.0,30.17,NNW,328,5.0,10.0,54,0.00,,,0.00,332,Wunderground v.1.15,2013-03-20 21:08:00,
2013-03-20 16:10:00,20.0,6.4,30.17,SW,221,5.0,5.0,55,0.00,,,0.00,650,Wunderground v.1.15,2013-03-20 21:10:00,
2013-03-20 16:11:00,20.2,7.0,30.17,WSW,246,5.0,5.0,56,0.00,,,0.00,693,Wunderground v.1.15,2013-03-20 21:11:00,
2013-03-20 16:12:00,20.4,7.2,30.17,WSW,239,5.0,5.0,56,0.00,,,0.00,693,Wunderground v.1.15,2013-03-20 21:12:00,
2013-03-20 16:16:00,20.0,6.0,30.17,NW,317,5.0,7.0,54,0.00,,,0.00,258,Wunderground v.1.15,2013-03-20 21:16:00,
2013-03-20 16:17:00,19.9,6.3,30.17,NW,311,5.0,7.0,55,0.00,,,0.00,258,Wunderground v.1.15,2013-03-20 21:17:00,
2013-03-20 16:18:00,19.9,6.3,30.17,West,273,5.0,7.0,55,0.00,,,0.00,359,Wunderground v.1.15,2013-03-20 21:18:00,
2013-03-20 16:19:00,19.9,6.3,30.17,SW,226,5.0,7.0,55,0.00,,,0.00,359,Wunderground v.1.15,2013-03-20 21:19:00,
2013-03-20 16:22:00,19.9,6.7,30.17,NW,324,5.0,5.0,56,0.00,,,0.00,250,Wunderground v.1.15,2013-03-20 21:22:00,
2013-03-20 16:25:00,19.4,5.8,30.17,NW,315,5.0,7.0,55,0.00,,,0.00,457,Wunderground v.1.15,2013-03-20 21:25:00,
2013-03-20 16:27:00,19.7,6.1,30.17,NW,317,5.0,7.0,55,0.00,,,0.00,603,Wunderground v.1.15,2013-03-20 21:27:00,
2013-03-20 16:33:00,19.5,5.9,30.17,NW,306,6.0,9.0,55,0.00,,,0.00,174,Wunderground v.1.15,2013-03-20 21:33:00,
2013-03-20 16:34:00,19.5,5.9,30.17,WNW,286,6.0,9.0,55,0.00,,,0.00,172,Wunderground v.1.15,2013-03-20 21:34:00,
2013-03-20 16:38:00,19.0,5.9,30.17,NNW,328,6.0,11.0,56,0.00,,,0.00,183,Wunderground v.1.15,2013-03-20 21:38:00,
2013-03-20 16:40:00,18.9,5.4,30.17,NNW,332,6.0,6.0,55,0.00,,,0.00,171,Wunderground v.1.15,2013-03-20 21:40:00,
2013-03-20 16:42:00,18.8,5.7,30.17,NW,320,6.0,8.0,56,0.00,,,0.00,162,Wunderground v.1.15,2013-03-20 21:42:00,
2013-03-20 16:43:00,18.9,5.8,30.17,WNW,299,6.0,8.0,56,0.00,,,0.00,163,Wunderground v.1.15,2013-03-20 21:43:00,
2013-03-20 16:46:00,19.1,6.3,30.17,WNW,289,5.0,8.0,57,0.00,,,0.00,178,Wunderground v.1.15,2013-03-20 21:46:00,
2013-03-20 16:47:00,19.1,6.0,30.17,NNW,329,5.0,8.0,56,0.00,,,0.00,178,Wunderground v.1.15,2013-03-20 21:47:00,
2013-03-20 16:49:00,19.1,6.0,30.17,NNW,329,5.0,9.0,56,0.00,,,0.00,207,Wunderground v.1.15,2013-03-20 21:49:00,
2013-03-20 16:52:00,19.3,6.1,30.17,NW,313,4.0,5.0,56,0.00,,,0.00,480,Wunderground v.1.15,2013-03-20 21:52:00,
2013-03-20 16:54:00,19.8,6.6,30.17,SSW,209,4.0,5.0,56,0.00,,,0.00,211,Wunderground v.1.15,2013-03-20 21:54:00,
2013-03-20 16:57:00,19.6,6.4,30.17,WNW,291,5.0,8.0,56,0.00,,,0.00,218,Wunderground v.1.15,2013-03-20 21:57:00,
2013-03-20 16:58:00,19.5,6.3,30.17,WSW,238,4.0,8.0,56,0.00,,,0.00,214,Wunderground v.1.15,2013-03-20 21:58:00,
2013-03-20 17:00:00,19.4,6.6,30.17,SW,227,5.0,7.0,57,0.00,,,0.00,192,Wunderground v.1.15,2013-03-20 22:00:00,
2013-03-20 17:02:00,19.4,6.6,30.17,NNW,327,5.0,7.0,57,0.00,,,0.00,174,Wunderground v.1.15,2013-03-20 22:02:00,
2013-03-20 17:03:00,19.6,7.2,30.17,WSW,237,5.0,7.0,58,0.00,,,0.00,169,Wunderground v.1.15,2013-03-20 22:03:00,
2013-03-20 17:07:00,19.7,6.5,30.17,NNW,331,4.0,7.0,56,0.00,,,0.00,179,Wunderground v.1.15,2013-03-20 22:07:00,
2013-03-20 17:10:00,19.7,6.5,30.17,WNW,301,5.0,6.0,56,0.00,,,0.00,171,Wunderground v.1.15,2013-03-20 22:10:00,
2013-03-20 17:11:00,19.7,6.5,30.17,NNW,339,5.0,6.0,56,0.00,,,0.00,163,Wunderground v.1.15,2013-03-20 22:11:00,
2013-03-20 17:13:00,19.6,6.4,30.18,NNW,331,5.0,6.0,56,0.00,,,0.00,153,Wunderground v.1.15,2013-03-20 22:13:00,
2013-03-20 17:15:00,19.6,6.0,30.17,NW,304,5.0,7.0,55,0.00,,,0.00,151,Wunderground v.1.15,2013-03-20 22:15:00,
2013-03-20 17:16:00,19.5,5.9,30.18,West,260,6.0,8.0,55,0.00,,,0.00,155,Wunderground v.1.15,2013-03-20 22:16:00,
2013-03-20 17:21:00,19.4,6.2,30.17,West,259,5.0,6.0,56,0.00,,,0.00,160,Wunderground v.1.15,2013-03-20 22:21:00,
2013-03-20 17:22:00,19.4,6.2,30.17,West,280,5.0,9.0,56,0.00,,,0.00,160,Wunderground v.1.15,2013-03-20 22:22:00,
2013-03-20 17:23:00,19.4,6.2,30.17,WNW,302,6.0,11.0,56,0.00,,,0.00,162,Wunderground v.1.15,2013-03-20 22:23:00,
2013-03-20 17:24:00,19.4,6.2,30.17,WNW,302,6.0,11.0,56,0.00,,,0.00,162,Wunderground v.1.15,2013-03-20 22:24:00,
2013-03-20 17:27:00,19.3,6.1,30.18,WNW,302,5.0,11.0,56,0.00,,,0.00,158,Wunderground v.1.15,2013-03-20 22:27:00,
2013-03-20 17:29:00,19.2,6.1,30.18,NW,315,5.0,11.0,56,0.00,,,0.00,158,Wunderground v.1.15,2013-03-20 22:29:00,
2013-03-20 17:30:00,19.2,6.1,30.18,NNW,327,5.0,11.0,56,0.00,,,0.00,163,Wunderground v.1.15,2013-03-20 22:30:00,
2013-03-20 17:33:00,19.3,6.5,30.18,NW,321,5.0,11.0,57,0.00,,,0.00,139,Wunderground v.1.15,2013-03-20 22:33:00,
2013-03-20 17:35:00,19.3,6.5,30.17,NW,323,5.0,11.0,57,0.00,,,0.00,132,Wunderground v.1.15,2013-03-20 22:35:00,
2013-03-20 17:38:00,19.3,6.5,30.18,WNW,291,5.0,11.0,57,0.00,,,0.00,134,Wunderground v.1.15,2013-03-20 22:38:00,
2013-03-20 17:41:00,19.3,6.5,30.18,NNW,327,3.0,5.0,57,0.00,,,0.00,134,Wunderground v.1.15,2013-03-20 22:41:00,
2013-03-20 17:43:00,19.4,6.6,30.18,WNW,299,4.0,8.0,57,0.00,,,0.00,123,Wunderground v.1.15,2013-03-20 22:43:00,
2013-03-20 17:45:00,19.4,6.6,30.18,West,281,4.0,8.0,57,0.00,,,0.00,113,Wunderground v.1.15,2013-03-20 22:45:00,
2013-03-20 17:46:00,19.4,6.6,30.18,WNW,300,4.0,10.0,57,0.00,,,0.00,111,Wunderground v.1.15,2013-03-20 22:46:00,
2013-03-20 17:49:00,19.3,6.1,30.18,WNW,289,4.0,10.0,56,0.00,,,0.00,113,Wunderground v.1.15,2013-03-20 22:49:00,
2013-03-20 17:53:00,19.3,6.5,30.18,West,271,4.0,5.0,57,0.00,,,0.00,107,Wunderground v.1.15,2013-03-20 22:53:00,
2013-03-20 17:54:00,19.2,6.4,30.18,NNW,330,4.0,8.0,57,0.00,,,0.00,105,Wunderground v.1.15,2013-03-20 22:54:00,
2013-03-20 17:59:00,19.2,6.4,30.18,North,355,4.0,8.0,57,0.00,,,0.00,102,Wunderground v.1.15,2013-03-20 22:59:00,
2013-03-20 18:00:00,19.2,6.4,30.18,NW,304,4.0,4.0,57,0.00,,,0.00,100,Wunderground v.1.15,2013-03-20 23:00:00,
2013-03-20 18:01:00,19.2,6.8,30.18,NW,311,4.0,4.0,58,0.00,,,0.00,95,Wunderground v.1.15,2013-03-20 23:01:00,
2013-03-20 18:04:00,19.2,6.4,30.18,WNW,300,5.0,9.0,57,0.00,,,0.00,83,Wunderground v.1.15,2013-03-20 23:04:00,
2013-03-20 18:05:00,19.1,6.0,30.18,NW,304,5.0,9.0,56,0.00,,,0.00,81,Wunderground v.1.15,2013-03-20 23:05:00,
2013-03-20 18:08:00,18.9,6.2,30.18,North,355,5.0,9.0,57,0.00,,,0.00,76,Wunderground v.1.15,2013-03-20 23:08:00,
2013-03-20 18:12:00,18.8,5.7,30.19,North,355,6.0,8.0,56,0.00,,,0.00,70,Wunderground v.1.15,2013-03-20 23:12:00,
2013-03-20 18:13:00,18.7,5.6,30.18,North,350,6.0,8.0,56,0.00,,,0.00,67,Wunderground v.1.15,2013-03-20 23:13:00,
2013-03-20 18:15:00,18.6,5.9,30.19,NNW,343,6.0,8.0,57,0.00,,,0.00,65,Wunderground v.1.15,2013-03-20 23:15:00,
2013-03-20 18:18:00,18.5,5.8,30.19,NW,323,6.0,8.0,57,0.00,,,0.00,67,Wunderground v.1.15,2013-03-20 23:18:00,
2013-03-20 18:19:00,18.5,5.8,30.19,NNW,333,5.0,8.0,57,0.00,,,0.00,65,Wunderground v.1.15,2013-03-20 23:19:00,
2013-03-20 18:21:00,18.4,5.7,30.19,NW,306,5.0,5.0,57,0.00,,,0.00,56,Wunderground v.1.15,2013-03-20 23:21:00,
2013-03-20 18:23:00,18.4,6.1,30.19,NW,319,4.0,5.0,58,0.00,,,0.00,56,Wunderground v.1.15,2013-03-20 23:23:00,
2013-03-20 18:24:00,18.3,6.0,30.19,NNW,336,4.0,6.0,58,0.00,,,0.00,49,Wunderground v.1.15,2013-03-20 23:24:00,
2013-03-20 18:30:00,18.2,5.9,30.19,NNW,348,4.0,10.0,58,0.00,,,0.00,54,Wunderground v.1.15,2013-03-20 23:30:00,
2013-03-20 18:31:00,18.2,5.9,30.19,WNW,289,5.0,10.0,58,0.00,,,0.00,53,Wunderground v.1.15,2013-03-20 23:31:00,
2013-03-20 18:32:00,18.1,5.8,30.19,NW,313,5.0,10.0,58,0.00,,,0.00,51,Wunderground v.1.15,2013-03-20 23:32:00,
2013-03-20 18:34:00,18.1,5.4,30.19,NW,317,5.0,10.0,57,0.00,,,0.00,47,Wunderground v.1.15,2013-03-20 23:34:00,
2013-03-20 18:36:00,18.0,5.7,30.19,NW,321,5.0,10.0,58,0.00,,,0.00,46,Wunderground v.1.15,2013-03-20 23:36:00,
2013-03-20 18:38:00,17.9,5.6,30.19,NW,311,4.0,10.0,58,0.00,,,0.00,47,Wunderground v.1.15,2013-03-20 23:38:00,
2013-03-20 18:41:00,17.9,5.6,30.19,NNW,333,5.0,5.0,58,0.00,,,0.00,46,Wunderground v.1.15,2013-03-20 23:41:00,
2013-03-20 18:42:00,17.9,5.6,30.19,WSW,247,4.0,6.0,58,0.00,,,0.00,46,Wunderground v.1.15,2013-03-20 23:42:00,
2013-03-20 18:44:00,17.8,5.9,30.20,WNW,294,4.0,6.0,59,0.00,,,0.00,44,Wunderground v.1.15,2013-03-20 23:44:00,
2013-03-20 18:46:00,17.8,5.9,30.20,NNW,332,4.0,8.0,59,0.00,,,0.00,37,Wunderground v.1.15,2013-03-20 23:46:00,
2013-03-20 18:50:00,17.7,5.8,30.20,NNW,342,3.0,3.0,59,0.00,,,0.00,28,Wunderground v.1.15,2013-03-20 23:50:00,
2013-03-20 18:51:00,17.7,5.8,30.20,NW,325,3.0,3.0,59,0.00,,,0.00,26,Wunderground v.1.15,2013-03-20 23:51:00,
2013-03-20 18:53:00,17.6,5.7,30.20,NW,309,3.0,3.0,59,0.00,,,0.00,25,Wunderground v.1.15,2013-03-20 23:53:00,
2013-03-20 18:56:00,17.5,5.6,30.20,NW,320,3.0,4.0,59,0.00,,,0.00,23,Wunderground v.1.15,2013-03-20 23:56:00,
2013-03-20 18:57:00,17.5,5.6,30.20,WNW,299,2.0,5.0,59,0.00,,,0.00,19,Wunderground v.1.15,2013-03-20 23:57:00,
2013-03-20 19:00:00,17.4,5.5,30.20,NW,305,3.0,6.0,59,0.00,,,0.00,16,Wunderground v.1.15,2013-03-21 00:00:00,
2013-03-20 19:03:00,17.3,5.4,30.20,NW,319,4.0,6.0,59,0.00,,,0.00,12,Wunderground v.1.15,2013-03-21 00:03:00,
2013-03-20 19:04:00,17.2,5.3,30.20,NNW,334,4.0,6.0,59,0.00,,,0.00,12,Wunderground v.1.15,2013-03-21 00:04:00,
2013-03-20 19:08:00,17.1,5.6,30.20,NNW,327,4.0,6.0,60,0.00,,,0.00,7,Wunderground v.1.15,2013-03-21 00:08:00,
2013-03-20 19:09:00,17.1,5.6,30.20,NW,312,4.0,6.0,60,0.00,,,0.00,7,Wunderground v.1.15,2013-03-21 00:09:00,
2013-03-20 19:10:00,17.0,5.5,30.20,NW,319,4.0,4.0,60,0.00,,,0.00,5,Wunderground v.1.15,2013-03-21 00:10:00,
2013-03-20 19:13:00,16.8,5.3,30.20,NW,323,4.0,6.0,60,0.00,,,0.00,5,Wunderground v.1.15,2013-03-21 00:13:00,
2013-03-20 19:14:00,16.8,5.3,30.20,NW,323,4.0,6.0,60,0.00,,,0.00,5,Wunderground v.1.15,2013-03-21 00:14:00,
2013-03-20 19:15:00,16.7,5.2,30.20,North,10,4.0,6.0,60,0.00,,,0.00,0,Wunderground v.1.15,2013-03-21 00:15:00,
2013-03-20 19:21:00,16.4,4.9,30.20,NW,317,4.0,4.0,60,0.00,,,0.00,0,Wunderground v.1.15,2013-03-21 00:21:00,
2013-03-20 19:22:00,16.4,4.9,30.20,NW,317,4.0,4.0,60,0.00,,,0.00,0,Wunderground v.1.15,2013-03-21 00:22:00,
2013-03-20 19:25:00,16.2,4.7,30.20,NW,317,3.0,4.0,60,0.00,,,0.00,0,Wunderground v.1.15,2013-03-21 00:25:00,
2013-03-20 19:27:00,16.2,5.1,30.20,NW,317,3.0,4.0,61,0.00,,,0.00,0,Wunderground v.1.15,2013-03-21 00:27:00,
2013-03-20 19:28:00,16.1,5.0,30.20,NW,317,2.0,4.0,61,0.00,,,0.00,0,Wunderground v.1.15,2013-03-21 00:28:00,
2013-03-20 19:31:00,16.0,4.9,30.20,NW,316,2.0,4.0,61,0.00,,,0.00,0,Wunderground v.1.15,2013-03-21 00:31:00,
2013-03-20 19:34:00,15.9,4.8,30.20,NW,306,2.0,4.0,61,0.00,,,0.00,0,Wunderground v.1.15,2013-03-21 00:34:00,
2013-03-20 19:36:00,15.8,4.7,30.21,WNW,294,2.0,4.0,61,0.00,,,0.00,0,Wunderground v.1.15,2013-03-21 00:36:00,
2013-03-20 19:38:00,15.8,4.7,30.20,WNW,294,2.0,4.0,61,0.00,,,0.00,0,Wunderground v.1.15,2013-03-21 00:38:00,
2013-03-20 19:39:00,15.7,4.6,30.20,WNW,294,2.0,5.0,61,0.00,,,0.00,0,Wunderground v.1.15,2013-03-21 00:39:00,
2013-03-20 19:44:00,15.5,4.8,30.21,WNW,294,2.0,3.0,62,0.00,,,0.00,0,Wunderground v.1.15,2013-03-21 00:44:00,
2013-03-20 19:45:00,15.5,4.8,30.21,WNW,294,2.0,3.0,62,0.00,,,0.00,0,Wunderground v.1.15,2013-03-21 00:45:00,
2013-03-20 19:48:00,15.4,4.7,30.21,WNW,294,1.0,3.0,62,0.00,,,0.00,0,Wunderground v.1.15,2013-03-21 00:48:00,
2013-03-20 19:53:00,15.2,4.5,30.21,WNW,294,1.0,3.0,62,0.00,,,0.00,0,Wunderground v.1.15,2013-03-21 00:53:00,
2013-03-20 19:56:00,15.1,4.4,30.21,WNW,294,1.0,3.0,62,0.00,,,0.00,0,Wunderground v.1.15,2013-03-21 00:56:00,
2013-03-20 19:57:00,15.1,4.4,30.21,WNW,294,1.0,3.0,62,0.00,,,0.00,0,Wunderground v.1.15,2013-03-21 00:57:00,
2013-03-20 19:58:00,15.0,4.3,30.21,WNW,294,1.0,3.0,62,0.00,,,0.00,0,Wunderground v.1.15,2013-03-21 00:58:00,
2013-03-20 19:59:00,15.0,4.3,30.21,WNW,294,1.0,3.0,62,0.00,,,0.00,0,Wunderground v.1.15,2013-03-21 00:59:00,
2013-03-20 20:02:00,14.9,4.2,30.21,WNW,294,1.0,1.0,62,0.00,,,0.00,0,Wunderground v.1.15,2013-03-21 01:02:00,
2013-03-20 20:05:00,14.8,4.5,30.21,WNW,294,1.0,3.0,63,0.00,,,0.00,0,Wunderground v.1.15,2013-03-21 01:05:00,
2013-03-20 20:07:00,14.8,4.5,30.21,WNW,294,1.0,3.0,63,0.00,,,0.00,0,Wunderground v.1.15,2013-03-21 01:07:00,
2013-03-20 20:13:00,14.8,4.1,30.21,WNW,294,1.0,1.0,62,0.00,,,0.00,0,Wunderground v.1.15,2013-03-21 01:13:00,
2013-03-20 20:14:00,14.8,4.1,30.21,WNW,294,1.0,1.0,62,0.00,,,0.00,0,Wunderground v.1.15,2013-03-21 01:14:00,
2013-03-20 20:16:00,14.7,4.4,30.21,WNW,294,1.0,1.0,63,0.00,,,0.00,0,Wunderground v.1.15,2013-03-21 01:16:00,
2013-03-20 20:17:00,14.7,4.0,30.21,WNW,294,0.0,1.0,62,0.00,,,0.00,0,Wunderground v.1.15,2013-03-21 01:17:00,
2013-03-20 20:18:00,14.6,3.9,30.21,WNW,294,0.0,1.0,62,0.00,,,0.00,0,Wunderground v.1.15,2013-03-21 01:18:00,
2013-03-20 20:23:00,14.5,4.5,30.21,WNW,294,0.0,0.0,64,0.00,,,0.00,0,Wunderground v.1.15,2013-03-21 01:23:00,
2013-03-20 20:26:00,14.4,4.4,30.21,WNW,294,0.0,0.0,64,0.00,,,0.00,0,Wunderground v.1.15,2013-03-21 01:26:00,
2013-03-20 20:27:00,14.4,4.4,30.21,WNW,294,0.0,0.0,64,0.00,,,0.00,0,Wunderground v.1.15,2013-03-21 01:27:00,
2013-03-20 20:30:00,14.2,4.2,30.21,WNW,294,0.0,0.0,64,0.00,,,0.00,0,Wunderground v.1.15,2013-03-21 01:30:00,
2013-03-20 20:32:00,14.1,4.1,30.21,WNW,294,0.0,0.0,64,0.00,,,0.00,0,Wunderground v.1.15,2013-03-21 01:32:00,
2013-03-20 20:33:00,14.1,4.1,30.21,WNW,294,0.0,0.0,64,0.00,,,0.00,0,Wunderground v.1.15,2013-03-21 01:33:00,
2013-03-20 20:35:00,14.1,4.5,30.21,WNW,294,0.0,0.0,65,0.00,,,0.00,0,Wunderground v.1.15,2013-03-21 01:35:00,
2013-03-20 20:37:00,14.1,4.5,30.21,WNW,294,0.0,0.0,65,0.00,,,0.00,0,Wunderground v.1.15,2013-03-21 01:37:00,
2013-03-20 20:42:00,13.8,4.9,30.21,WNW,294,0.0,0.0,67,0.00,,,0.00,0,Wunderground v.1.15,2013-03-21 01:42:00,
2013-03-20 20:43:00,13.7,4.8,30.21,WNW,294,0.0,0.0,67,0.00,,,0.00,0,Wunderground v.1.15,2013-03-21 01:43:00,
2013-03-20 20:46:00,13.6,4.7,30.21,WNW,294,0.0,0.0,67,0.00,,,0.00,0,Wunderground v.1.15,2013-03-21 01:46:00,
2013-03-20 20:48:00,13.5,4.6,30.21,WNW,294,0.0,0.0,67,0.00,,,0.00,0,Wunderground v.1.15,2013-03-21 01:48:00,
2013-03-20 20:50:00,13.4,4.5,30.21,WNW,294,0.0,0.0,67,0.00,,,0.00,0,Wunderground v.1.15,2013-03-21 01:50:00,
2013-03-20 20:51:00,13.3,4.7,30.21,WNW,294,0.0,0.0,68,0.00,,,0.00,0,Wunderground v.1.15,2013-03-21 01:51:00,
2013-03-20 20:55:00,13.1,4.5,30.21,WNW,294,0.0,0.0,68,0.00,,,0.00,0,Wunderground v.1.15,2013-03-21 01:55:00,
2013-03-20 20:57:00,13.1,4.8,30.21,WNW,294,0.0,0.0,69,0.00,,,0.00,0,Wunderground v.1.15,2013-03-21 01:57:00,
2013-03-20 20:59:00,13.0,4.7,30.21,WNW,294,0.0,0.0,69,0.00,,,0.00,0,Wunderground v.1.15,2013-03-21 01:59:00,
2013-03-20 21:05:00,12.4,4.2,30.20,WNW,294,0.0,1.0,69,0.00,,,0.00,0,Wunderground v.1.15,2013-03-21 02:05:00,
2013-03-20 21:06:00,12.4,4.2,30.20,WNW,294,0.0,1.0,69,0.00,,,0.00,0,Wunderground v.1.15,2013-03-21 02:06:00,
2013-03-20 21:07:00,12.3,4.1,30.21,WNW,294,0.0,1.0,69,0.00,,,0.00,0,Wunderground v.1.15,2013-03-21 02:07:00,
2013-03-20 21:08:00,12.2,4.0,30.20,WNW,294,0.0,1.0,69,0.00,,,0.00,0,Wunderground v.1.15,2013-03-21 02:08:00,
2013-03-20 21:12:00,11.4,3.2,30.21,WNW,294,1.0,2.0,69,0.00,,,0.00,0,Wunderground v.1.15,2013-03-21 02:12:00,
2013-03-20 21:13:00,11.1,3.2,30.21,NNE,12,1.0,2.0,70,0.00,,,0.00,0,Wunderground v.1.15,2013-03-21 02:13:00,
2013-03-20 21:15:00,10.8,2.9,30.21,NNE,18,1.0,2.0,70,0.00,,,0.00,0,Wunderground v.1.15,2013-03-21 02:15:00,
2013-03-20 21:18:00,10.2,2.7,30.21,NNE,18,2.0,2.0,71,0.00,,,0.00,0,Wunderground v.1.15,2013-03-21 02:18:00,
2013-03-20 21:19:00,10.1,2.6,30.21,NNE,18,2.0,2.0,71,0.00,,,0.00,0,Wunderground v.1.15,2013-03-21 02:19:00,
2013-03-20 21:20:00,10.0,2.5,30.21,NNE,18,1.0,1.0,71,0.00,,,0.00,0,Wunderground v.1.15,2013-03-21 02:20:00,
2013-03-20 21:24:00,10.2,3.3,30.21,NNE,18,1.0,1.0,73,0.00,,,0.00,0,Wunderground v.1.15,2013-03-21 02:24:00,
2013-03-20 21:25:00,10.2,3.6,30.21,NNE,18,1.0,1.0,74,0.00,,,0.00,0,Wunderground v.1.15,2013-03-21 02:25:00,
2013-03-20 21:27:00,10.3,3.7,30.21,NNE,18,0.0,1.0,74,0.00,,,0.00,0,Wunderground v.1.15,2013-03-21 02:27:00,
2013-03-20 21:30:00,10.0,3.4,30.21,NNE,18,0.0,0.0,74,0.00,,,0.00,0,Wunderground v.1.15,2013-03-21 02:30:00,
2013-03-20 21:33:00,9.7,2.8,30.21,NNE,18,0.0,0.0,73,0.00,,,0.00,0,Wunderground v.1.15,2013-03-21 02:33:00,
2013-03-20 21:36:00,9.6,3.0,30.21,NNE,18,0.0,0.0,74,0.00,,,0.00,0,Wunderground v.1.15,2013-03-21 02:36:00,
2013-03-20 21:37:00,9.5,2.9,30.21,NNE,18,0.0,0.0,74,0.00,,,0.00,0,Wunderground v.1.15,2013-03-21 02:37:00,
2013-03-20 21:42:00,8.8,2.2,30.21,NNE,18,0.0,0.0,74,0.00,,,0.00,0,Wunderground v.1.15,2013-03-21 02:42:00,
2013-03-20 21:46:00,8.4,2.1,30.21,NNE,18,0.0,1.0,75,0.00,,,0.00,0,Wunderground v.1.15,2013-03-21 02:46:00,
2013-03-20 21:48:00,8.1,2.1,30.21,NNE,18,0.0,3.0,76,0.00,,,0.00,0,Wunderground v.1.15,2013-03-21 02:48:00,
2013-03-20 21:49:00,8.1,2.1,30.21,NNE,18,0.0,3.0,76,0.00,,,0.00,0,Wunderground v.1.15,2013-03-21 02:49:00,
2013-03-20 21:50:00,8.0,2.0,30.21,NNE,18,1.0,2.0,76,0.00,,,0.00,0,Wunderground v.1.15,2013-03-21 02:50:00,
2013-03-20 21:54:00,8.1,2.4,30.22,NNE,18,1.0,2.0,77,0.00,,,0.00,0,Wunderground v.1.15,2013-03-21 02:54:00,
2013-03-20 21:55:00,8.0,2.3,30.22,NNE,18,1.0,2.0,77,0.00,,,0.00,0,Wunderground v.1.15,2013-03-21 02:55:00,
2013-03-20 21:58:00,7.9,2.2,30.22,NNE,18,0.0,2.0,77,0.00,,,0.00,0,Wunderground v.1.15,2013-03-21 02:58:00,
2013-03-20 21:59:00,7.9,2.2,30.22,NNE,18,0.0,2.0,77,0.00,,,0.00,0,Wunderground v.1.15,2013-03-21 02:59:00,
2013-03-20 22:00:00,7.8,2.1,30.22,NNE,18,0.0,0.0,77,0.00,,,0.00,0,Wunderground v.1.15,2013-03-21 03:00:00,
2013-03-20 22:02:00,7.6,1.9,30.22,NNE,18,0.0,0.0,77,0.00,,,0.00,0,Wunderground v.1.15,2013-03-21 03:02:00,
2013-03-20 22:06:00,7.1,1.7,30.22,NNE,18,0.0,0.0,78,0.00,,,0.00,0,Wunderground v.1.15,2013-03-21 03:06:00,
2013-03-20 22:08:00,7.1,1.7,30.22,NNE,18,0.0,0.0,78,0.00,,,0.00,0,Wunderground v.1.15,2013-03-21 03:08:00,
2013-03-20 22:10:00,7.2,2.1,30.22,NNE,18,0.0,0.0,79,0.00,,,0.00,0,Wunderground v.1.15,2013-03-21 03:10:00,
2013-03-20 22:13:00,7.2,2.1,30.22,NNE,18,0.0,0.0,79,0.00,,,0.00,0,Wunderground v.1.15,2013-03-21 03:13:00,
2013-03-20 22:14:00,7.2,2.1,30.22,NNE,18,0.0,0.0,79,0.00,,,0.00,0,Wunderground v.1.15,2013-03-21 03:14:00,
2013-03-20 22:15:00,7.2,2.1,30.22,NNE,18,0.0,0.0,79,0.00,,,0.00,0,Wunderground v.1.15,2013-03-21 03:15:00,
2013-03-20 22:18:00,7.1,2.0,30.22,NNE,18,0.0,0.0,79,0.00,,,0.00,0,Wunderground v.1.15,2013-03-21 03:18:00,
2013-03-20 22:20:00,6.9,1.8,30.22,NNE,18,0.0,0.0,79,0.00,,,0.00,0,Wunderground v.1.15,2013-03-21 03:20:00,
2013-03-20 22:24:00,6.5,1.4,30.22,NNE,18,0.0,0.0,79,0.00,,,0.00,0,Wunderground v.1.15,2013-03-21 03:24:00,
2013-03-20 22:26:00,6.4,1.3,30.22,NNE,18,0.0,0.0,79,0.00,,,0.00,0,Wunderground v.1.15,2013-03-21 03:26:00,
2013-03-20 22:28:00,6.3,1.2,30.22,NNE,18,0.0,0.0,79,0.00,,,0.00,0,Wunderground v.1.15,2013-03-21 03:28:00,
2013-03-20 22:29:00,6.4,1.5,30.22,NNE,18,0.0,0.0,80,0.00,,,0.00,0,Wunderground v.1.15,2013-03-21 03:29:00,
2013-03-20 22:31:00,6.3,1.4,30.22,NNE,18,0.0,0.0,80,0.00,,,0.00,0,Wunderground v.1.15,2013-03-21 03:31:00,
2013-03-20 22:33:00,6.3,1.4,30.22,NNE,18,0.0,0.0,80,0.00,,,0.00,0,Wunderground v.1.15,2013-03-21 03:33:00,
2013-03-20 22:35:00,6.2,1.4,30.22,NNE,18,0.0,0.0,80,0.00,,,0.00,0,Wunderground v.1.15,2013-03-21 03:35:00,
2013-03-20 22:38:00,6.1,1.3,30.22,NNE,18,0.0,0.0,80,0.00,,,0.00,0,Wunderground v.1.15,2013-03-21 03:38:00,
2013-03-20 22:40:00,6.0,1.2,30.22,NNE,18,0.0,0.0,80,0.00,,,0.00,0,Wunderground v.1.15,2013-03-21 03:40:00,
2013-03-20 22:41:00,6.0,1.2,30.22,NNE,18,0.0,0.0,80,0.00,,,0.00,0,Wunderground v.1.15,2013-03-21 03:41:00,
2013-03-20 22:45:00,5.8,1.0,30.22,NNE,18,0.0,0.0,80,0.00,,,0.00,0,Wunderground v.1.15,2013-03-21 03:45:00,
2013-03-20 22:47:00,5.7,0.9,30.23,NNE,18,0.0,0.0,80,0.00,,,0.00,0,Wunderground v.1.15,2013-03-21 03:47:00,
2013-03-20 22:48:00,5.6,0.8,30.22,NNE,18,0.0,0.0,80,0.00,,,0.00,0,Wunderground v.1.15,2013-03-21 03:48:00,
2013-03-20 22:53:00,5.5,0.9,30.22,NNE,18,0.0,0.0,81,0.00,,,0.00,0,Wunderground v.1.15,2013-03-21 03:53:00,
2013-03-20 22:54:00,5.5,0.9,30.22,NNE,18,0.0,0.0,81,0.00,,,0.00,0,Wunderground v.1.15,2013-03-21 03:54:00,
2013-03-20 22:55:00,5.4,0.8,30.22,NNE,18,0.0,0.0,81,0.00,,,0.00,0,Wunderground v.1.15,2013-03-21 03:55:00,
2013-03-20 22:58:00,5.2,0.6,30.22,NNE,18,0.0,0.0,81,0.00,,,0.00,0,Wunderground v.1.15,2013-03-21 03:58:00,
2013-03-20 22:59:00,5.1,0.5,30.22,NNE,18,0.0,0.0,81,0.00,,,0.00,0,Wunderground v.1.15,2013-03-21 03:59:00,
2013-03-20 23:00:00,5.0,0.4,30.22,NNE,18,0.0,0.0,81,0.00,,,0.00,0,Wunderground v.1.15,2013-03-21 04:00:00,
2013-03-20 23:02:00,5.1,0.8,30.22,NNE,18,0.0,0.0,82,0.00,,,0.00,0,Wunderground v.1.15,2013-03-21 04:02:00,
2013-03-20 23:03:00,5.1,0.8,30.22,NNE,18,0.0,0.0,82,0.00,,,0.00,0,Wunderground v.1.15,2013-03-21 04:03:00,
2013-03-20 23:08:00,4.9,3.1,30.22,NNE,18,0.0,0.0,92,0.00,,,0.00,0,Wunderground v.1.15,2013-03-21 04:08:00,
2013-03-20 23:13:00,4.5,0.2,30.22,NNE,18,0.0,0.0,82,0.00,,,0.00,0,Wunderground v.1.15,2013-03-21 04:13:00,
2013-03-20 23:15:00,4.4,0.1,30.22,NNE,18,0.0,0.0,82,0.00,,,0.00,0,Wunderground v.1.15,2013-03-21 04:15:00,
2013-03-20 23:17:00,4.4,0.1,30.22,NNE,18,0.0,0.0,82,0.00,,,0.00,0,Wunderground v.1.15,2013-03-21 04:17:00,
2013-03-20 23:20:00,4.3,0.3,30.22,NNE,18,0.0,0.0,83,0.00,,,0.00,0,Wunderground v.1.15,2013-03-21 04:20:00,
2013-03-20 23:21:00,4.3,0.3,30.22,NNE,18,0.0,0.0,83,0.00,,,0.00,0,Wunderground v.1.15,2013-03-21 04:21:00,
2013-03-20 23:23:00,4.1,0.1,30.22,NNE,18,0.0,1.0,83,0.00,,,0.00,0,Wunderground v.1.15,2013-03-21 04:23:00,
2013-03-20 23:24:00,4.0,0.0,30.22,NNE,18,0.0,1.0,83,0.00,,,0.00,0,Wunderground v.1.15,2013-03-21 04:24:00,
2013-03-20 23:30:00,4.0,0.0,30.22,NNE,18,0.0,0.0,83,0.00,,,0.00,0,Wunderground v.1.15,2013-03-21 04:30:00,
2013-03-20 23:31:00,4.0,0.0,30.22,NNE,18,0.0,0.0,83,0.00,,,0.00,0,Wunderground v.1.15,2013-03-21 04:31:00,
2013-03-20 23:32:00,4.0,0.0,30.22,NNE,18,0.0,0.0,83,0.00,,,0.00,0,Wunderground v.1.15,2013-03-21 04:32:00,
2013-03-20 23:33:00,4.0,0.0,30.22,NNE,18,0.0,0.0,83,0.00,,,0.00,0,Wunderground v.1.15,2013-03-21 04:33:00,
2013-03-20 23:36:00,3.9,-0.1,30.22,NNE,18,0.0,0.0,83,0.00,,,0.00,0,Wunderground v.1.15,2013-03-21 04:36:00,
2013-03-20 23:37:00,3.8,-0.2,30.22,NNE,18,0.0,0.0,83,0.00,,,0.00,0,Wunderground v.1.15,2013-03-21 04:37:00,
2013-03-20 23:40:00,3.8,-0.2,30.22,NNE,18,0.0,0.0,83,0.00,,,0.00,0,Wunderground v.1.15,2013-03-21 04:40:00,
2013-03-20 23:42:00,3.7,-0.3,30.22,NNE,18,0.0,0.0,83,0.00,,,0.00,0,Wunderground v.1.15,2013-03-21 04:42:00,
2013-03-20 23:45:00,3.6,-0.4,30.22,NNE,18,0.0,0.0,83,0.00,,,0.00,0,Wunderground v.1.15,2013-03-21 04:45:00,
2013-03-20 23:47:00,3.5,-0.5,30.22,NNE,18,0.0,0.0,83,0.00,,,0.00,0,Wunderground v.1.15,2013-03-21 04:47:00,
2013-03-20 23:48:00,3.5,-0.5,30.22,NNE,18,0.0,0.0,83,0.00,,,0.00,0,Wunderground v.1.15,2013-03-21 04:48:00,
2013-03-20 23:49:00,3.6,-0.4,30.22,NNE,18,0.0,0.0,83,0.00,,,0.00,0,Wunderground v.1.15,2013-03-21 04:49:00,
2013-03-20 23:53:00,3.5,-0.5,30.22,NNE,18,0.0,0.0,83,0.00,,,0.00,0,Wunderground v.1.15,2013-03-21 04:53:00,
2013-03-20 23:54:00,3.4,-0.6,30.22,NNE,18,0.0,0.0,83,0.00,,,0.00,0,Wunderground v.1.15,2013-03-21 04:54:00,
2013-03-20 23:55:00,3.3,-0.7,30.22,NNE,18,0.0,0.0,83,0.00,,,0.00,0,Wunderground v.1.15,2013-03-21 04:55:00,
2013-03-20 23:58:00,3.3,-0.4,30.22,NNE,18,0.0,0.0,84,0.00,,,0.00,0,Wunderground v.1.15,2013-03-21 04:58:00,
2013-03-20 23:59:00,3.2,-0.5,30.22,NNE,18,0.0,0.0,84,0.00,,,0.00,0,Wunderground v.1.15,2013-03-21 04:59:00,